DW6912 Weather Reports


Display with metric or nautical units.
time (UTC)temp
F
wind
direction
speed
MPH
gust
MPH
rain 1hr
in
rain 24hr
in
rain mn
in
humidity
%
barometer
mb
20260831210801 79 139 0.0 3.0 0.00 0.00 0.00 83 1017.0
20260831210702 79 139 1.0 3.0 0.00 0.00 0.00 83 1017.0
20260831210600 79 139 0.0 3.0 0.00 0.00 0.00 83 1017.0
20260831210504 79 140 2.0 2.0 0.00 0.00 0.00 84 1017.0
20260831210004 79 140 0.0 2.0 0.00 0.00 0.00 83 1017.0
20260831205901 79 140 1.0 2.0 0.00 0.00 0.00 83 1017.0
20260831205801 79 140 0.0 2.0 0.00 0.00 0.00 83 1017.0
20260831205700 79 140 0.0 2.0 0.00 0.00 0.00 84 1017.0
20260831205600 79 140 0.0 3.0 0.00 0.00 0.00 84 1017.1
20260831205504 79 140 0.0 4.0 0.00 0.00 0.00 83 1017.0
20260831205401 80 136 1.0 4.0 0.00 0.00 0.00 84 1017.0
20260831205300 80 136 0.0 4.0 0.00 0.00 0.00 83 1017.0
20260831205203 80 136 1.0 4.0 0.00 0.00 0.00 83 1017.0
20260831205101 80 136 0.0 4.0 0.00 0.00 0.00 84 1017.0
20260831204901 80 136 0.0 4.0 0.00 0.00 0.00 83 1017.0
20260831204803 79 136 0.0 4.0 0.00 0.00 0.00 82 1017.0
20260831204702 79 136 1.0 4.0 0.00 0.00 0.00 82 1017.1
20260831204600 79 136 2.0 4.0 0.00 0.00 0.00 83 1017.1
20260831204504 80 111 1.0 4.0 0.00 0.00 0.00 84 1017.0
20260831204400 80 111 0.0 4.0 0.00 0.00 0.00 84 1017.0
20260831204300 79 111 0.0 4.0 0.00 0.00 0.00 84 1017.1
20260831204200 80 111 0.0 4.0 0.00 0.00 0.00 85 1017.0
20260831204058 79 111 0.0 4.0 0.00 0.00 0.00 85 1017.0
20260831204004 80 111 0.0 4.0 0.00 0.00 0.00 85 1017.0
20260831203801 80 111 2.0 4.0 0.00 0.00 0.00 83 1017.0
20260831203700 80 153 2.0 3.0 0.00 0.00 0.00 84 1017.1
20260831203601 80 155 1.0 2.0 0.00 0.00 0.00 85 1017.0
20260831203503 80 155 0.0 3.0 0.00 0.00 0.00 84 1017.1
20260831203401 80 155 0.0 3.0 0.00 0.00 0.00 84 1017.1
20260831203300 80 155 0.0 3.0 0.00 0.00 0.00 84 1017.1
20260831203201 80 155 1.0 3.0 0.00 0.00 0.00 86 1017.1
20260831203102 80 155 0.0 3.0 0.00 0.00 0.00 85 1017.1
20260831203005 80 155 0.0 3.0 0.00 0.00 0.00 83 1017.1
20260831202900 80 155 0.0 3.0 0.00 0.00 0.00 83 1017.1
20260831202600 79 155 0.0 4.0 0.00 0.00 0.00 84 1017.1
20260831202503 79 179 1.0 4.0 0.00 0.00 0.00 84 1017.1
20260831202402 79 179 0.0 4.0 0.00 0.00 0.00 84 1017.1
20260831202300 79 179 0.0 4.0 0.00 0.00 0.00 84 1017.1
20260831202200 80 179 0.0 4.0 0.00 0.00 0.00 84 1017.1
20260831202102 80 179 0.0 4.0 0.00 0.00 0.00 83 1017.1
20260831202004 80 179 0.0 4.0 0.00 0.00 0.00 83 1017.1
20260831201900 80 179 0.0 4.0 0.00 0.00 0.00 83 1017.1
20260831201803 80 179 2.0 4.0 0.00 0.00 0.00 83 1017.1
20260831201700 80 82 3.0 3.0 0.00 0.00 0.00 83 1017.1
20260831201400 80 82 0.0 4.0 0.00 0.00 0.00 82 1017.1
20260831201300 80 82 0.0 4.0 0.00 0.00 0.00 82 1017.1
20260831201200 80 82 0.0 4.0 0.00 0.00 0.00 82 1017.2
20260831201059 80 82 0.0 4.0 0.00 0.00 0.00 82 1017.1
20260831201004 80 82 0.0 4.0 0.00 0.00 0.00 82 1017.1
20260831200901 80 82 0.0 4.0 0.00 0.00 0.00 83 1017.2
20260831200801 80 74 0.0 4.0 0.00 0.00 0.00 83 1017.2
20260831200601 80 74 1.0 4.0 0.00 0.00 0.00 82 1017.2
20260831200503 80 145 0.0 4.0 0.00 0.00 0.00 82 1017.3
20260831200400 80 145 1.0 4.0 0.00 0.00 0.00 82 1017.3
20260831200301 80 144 1.0 4.0 0.00 0.00 0.00 82 1017.3
20260831200201 80 146 3.0 4.0 0.00 0.00 0.00 82 1017.3
20260831200100 80 150 0.0 3.0 0.00 0.00 0.00 82 1017.3
20260831200005 80 150 2.0 3.0 0.00 0.00 0.00 82 1017.3
20260831195700 79 150 0.0 5.0 0.00 0.00 0.00 82 1017.3
20260831195601 79 150 1.0 5.0 0.00 0.00 0.00 82 1017.3
20260831195504 79 152 0.0 5.0 0.00 0.00 0.00 82 1017.3
20260831195400 80 152 0.0 5.0 0.00 0.00 0.00 82 1017.3
20260831195301 79 152 3.0 5.0 0.00 0.00 0.00 81 1017.3
20260831195201 79 103 0.0 5.0 0.00 0.00 0.00 82 1017.3
20260831195100 79 148 0.0 5.0 0.00 0.00 0.00 82 1017.4
20260831195003 79 148 1.0 5.0 0.00 0.00 0.00 81 1017.4
20260831194900 79 148 4.0 5.0 0.00 0.00 0.00 81 1017.4
20260831194801 79 140 4.0 5.0 0.00 0.00 0.00 81 1017.4
20260831194701 79 76 2.0 4.0 0.00 0.00 0.00 82 1017.4
20260831194602 79 141 2.0 4.0 0.00 0.00 0.00 83 1017.4
20260831194504 79 144 3.0 3.0 0.00 0.00 0.00 82 1017.4
20260831194400 79 144 0.0 3.0 0.00 0.00 0.00 82 1017.4
20260831194300 79 144 1.0 3.0 0.00 0.00 0.00 82 1017.5
20260831194200 79 144 1.0 3.0 0.00 0.00 0.00 82 1017.5
20260831194100 79 144 1.0 3.0 0.00 0.00 0.00 83 1017.5
20260831194004 79 144 1.0 3.0 0.00 0.00 0.00 82 1017.6
20260831193900 79 144 0.0 3.0 0.00 0.00 0.00 82 1017.6
20260831193701 79 144 0.0 3.0 0.00 0.00 0.00 83 1017.6
20260831193601 79 137 1.0 3.0 0.00 0.00 0.00 84 1017.5
20260831193505 79 137 1.0 3.0 0.00 0.00 0.00 85 1017.5
20260831193401 79 137 0.0 3.0 0.00 0.00 0.00 84 1017.5
20260831193300 79 137 0.0 3.0 0.00 0.00 0.00 83 1017.5
20260831193200 79 137 0.0 3.0 0.00 0.00 0.00 82 1017.5
20260831193100 79 137 0.0 3.0 0.00 0.00 0.00 81 1017.5
20260831192901 79 137 1.0 2.0 0.00 0.00 0.00 82 1017.5
20260831192800 79 137 0.0 2.0 0.00 0.00 0.00 81 1017.5
20260831192700 79 137 1.0 2.0 0.00 0.00 0.00 81 1017.5
20260831192600 79 136 0.0 2.0 0.00 0.00 0.00 81 1017.6
20260831192504 79 136 0.0 2.0 0.00 0.00 0.00 81 1017.6
20260831192400 79 136 0.0 2.0 0.00 0.00 0.00 82 1017.6
20260831192301 79 136 0.0 3.0 0.00 0.00 0.00 82 1017.6
20260831192100 80 137 0.0 3.0 0.00 0.00 0.00 81 1017.6
20260831192004 80 136 0.0 3.0 0.00 0.00 0.00 81 1017.7
20260831191900 80 137 0.0 3.0 0.00 0.00 0.00 82 1017.7
20260831191700 80 137 0.0 3.0 0.00 0.00 0.00 81 1017.7
20260831191504 80 136 1.0 3.0 0.00 0.00 0.00 80 1017.7
20260831191300 80 134 0.0 3.0 0.00 0.00 0.00 80 1017.7
20260831191201 80 134 0.0 3.0 0.00 0.00 0.00 80 1017.7
20260831191100 80 134 0.0 3.0 0.00 0.00 0.00 79 1017.7
20260831191004 80 134 0.0 3.0 0.00 0.00 0.00 80 1017.8
20260831190902 80 134 1.0 3.0 0.00 0.00 0.00 81 1017.8
20260831190701 80 128 0.0 2.0 0.00 0.00 0.00 81 1017.8
20260831190600 80 128 0.0 4.0 0.00 0.00 0.00 81 1017.8
20260831190503 80 128 0.0 4.0 0.00 0.00 0.00 81 1017.8
20260831190401 80 128 0.0 4.0 0.00 0.00 0.00 81 1017.8
20260831190300 80 128 0.0 4.0 0.00 0.00 0.00 80 1017.8
20260831190201 80 128 0.0 4.0 0.00 0.00 0.00 80 1017.9
20260831190100 80 128 2.0 4.0 0.00 0.00 0.00 79 1017.9
20260831190004 80 128 1.0 4.0 0.00 0.00 0.00 80 1018.0
20260831185901 80 128 1.0 4.0 0.00 0.00 0.00 80 1018.0
20260831185700 80 128 1.0 4.0 0.00 0.00 0.00 80 1018.0
20260831185504 80 194 0.0 4.0 0.00 0.00 0.00 81 1018.0
20260831185401 80 194 0.0 4.0 0.00 0.00 0.00 81 1017.9
20260831185301 80 194 1.0 4.0 0.00 0.00 0.00 80 1018.0
20260831185200 80 194 0.0 4.0 0.00 0.00 0.00 80 1017.9
20260831185100 80 196 2.0 4.0 0.00 0.00 0.00 80 1018.0
20260831185004 80 150 1.0 5.0 0.00 0.00 0.00 80 1018.0
20260831184800 80 158 1.0 3.0 0.00 0.00 0.00 80 1018.0
20260831184700 80 176 1.0 3.0 0.00 0.00 0.00 79 1018.0
20260831184601 80 119 3.0 3.0 0.00 0.00 0.00 81 1018.1
20260831184505 79 94 2.0 3.0 0.00 0.00 0.00 81 1018.1
20260831184401 79 131 1.0 3.0 0.00 0.00 0.00 81 1018.1
20260831184301 79 161 0.0 2.0 0.00 0.00 0.00 81 1018.1
20260831184201 79 161 0.0 2.0 0.00 0.00 0.00 83 1018.1
20260831184101 79 161 0.0 2.0 0.00 0.00 0.00 82 1018.1
20260831184004 79 161 0.0 2.0 0.00 0.00 0.00 82 1018.1
20260831183903 79 161 0.0 2.0 0.00 0.00 0.00 84 1018.1
20260831183701 79 161 0.0 2.0 0.00 0.00 0.00 82 1018.1
20260831183600 79 161 1.0 2.0 0.00 0.00 0.00 82 1018.1
20260831183503 79 161 0.0 2.0 0.00 0.00 0.00 83 1018.1
20260831183401 79 161 0.0 2.0 0.00 0.00 0.00 83 1018.1
20260831183300 79 161 0.0 2.0 0.00 0.00 0.00 81 1018.1
20260831183101 79 161 1.0 1.0 0.00 0.00 0.00 82 1018.1
20260831182802 79 161 0.0 0.0 0.00 0.00 0.00 84 1018.1
20260831182700 79 161 0.0 0.0 0.00 0.00 0.00 85 1018.1
20260831182600 79 161 0.0 0.0 0.00 0.00 0.00 85 1018.1
20260831182305 79 161 0.0 3.0 0.00 0.00 0.00 82 1018.2
20260831182200 79 161 0.0 3.0 0.00 0.00 0.00 82 1018.1
20260831182100 79 161 0.0 3.0 0.00 0.00 0.00 82 1018.2
20260831182004 79 161 0.0 3.0 0.00 0.00 0.00 83 1018.2
20260831181901 79 161 0.0 3.0 0.00 0.00 0.00 82 1018.2
20260831181802 79 161 0.0 3.0 0.00 0.00 0.00 82 1018.1
20260831181601 78 161 0.0 3.0 0.00 0.00 0.00 82 1018.2
20260831181503 78 161 1.0 2.0 0.00 0.00 0.00 82 1018.1
20260831181302 78 161 1.0 2.0 0.00 0.00 0.00 83 1018.1
20260831181200 78 161 0.0 2.0 0.00 0.00 0.00 82 1018.2
20260831181101 78 161 0.0 2.0 0.00 0.00 0.00 82 1018.1
20260831181004 78 161 0.0 2.0 0.00 0.00 0.00 83 1018.2
20260831180801 78 161 0.0 2.0 0.00 0.00 0.00 81 1018.2
20260831180600 78 161 1.0 2.0 0.00 0.00 0.00 82 1018.3
20260831180504 78 161 1.0 2.0 0.00 0.00 0.00 82 1018.3
20260831180400 79 161 0.0 2.0 0.00 0.00 0.00 81 1018.3
20260831180301 79 161 2.0 2.0 0.00 0.00 0.00 81 1018.3
20260831180201 79 161 0.0 1.0 0.00 0.00 0.00 82 1018.3
20260831180100 79 161 0.0 2.0 0.00 0.00 0.00 82 1018.3
20260831175859 79 161 0.0 2.0 0.00 0.00 0.00 80 1018.4
20260831175801 79 161 1.0 2.0 0.00 0.00 0.00 80 1018.4
20260831175201 79 161 2.0 3.0 0.00 0.00 0.00 80 1018.4
20260831175101 79 161 0.0 3.0 0.00 0.00 0.00 79 1018.4
20260831175004 79 161 2.0 3.0 0.00 0.00 0.00 80 1018.4
20260831174901 79 161 2.0 3.0 0.00 0.00 0.00 80 1018.4
20260831174801 79 161 0.0 3.0 0.00 0.00 0.00 81 1018.3
20260831174701 79 161 1.0 3.0 0.00 0.00 0.00 83 1018.3
20260831174600 79 161 1.0 3.0 0.00 0.00 0.00 83 1018.3
20260831174503 79 161 0.0 3.0 0.00 0.00 0.00 83 1018.3
20260831174300 79 161 1.0 4.0 0.00 0.00 0.00 81 1018.3
20260831174201 79 161 0.0 2.0 0.00 0.00 0.00 82 1018.3
20260831174101 79 161 0.0 2.0 0.00 0.00 0.00 80 1018.3
20260831174004 79 161 0.0 2.0 0.00 0.00 0.00 80 1018.3
20260831173900 79 161 0.0 3.0 0.00 0.00 0.00 80 1018.3
20260831173801 79 161 0.0 3.0 0.00 0.00 0.00 80 1018.3
20260831173701 79 161 0.0 3.0 0.00 0.00 0.00 80 1018.4
20260831173600 79 161 0.0 3.0 0.00 0.00 0.00 80 1018.3
20260831173504 79 161 0.0 3.0 0.00 0.00 0.00 81 1018.3
20260831173300 79 161 0.0 3.0 0.00 0.00 0.00 80 1018.4
20260831173100 79 161 1.0 3.0 0.00 0.00 0.00 79 1018.4
20260831173004 79 161 1.0 3.0 0.00 0.00 0.00 80 1018.4
20260831172901 79 181 0.0 0.0 0.00 0.00 0.00 80 1018.3
20260831172700 79 181 0.0 0.0 0.00 0.00 0.00 80 1018.4
20260831172600 79 181 0.0 0.0 0.00 0.00 0.00 80 1018.4
20260831172503 79 181 0.0 0.0 0.00 0.00 0.00 80 1018.4
20260831172400 79 181 0.0 0.0 0.00 0.00 0.00 80 1018.4
20260831172300 79 181 0.0 0.0 0.00 0.00 0.00 80 1018.4
20260831172201 79 181 0.0 0.0 0.00 0.00 0.00 80 1018.5
20260831172100 79 181 0.0 0.0 0.00 0.00 0.00 80 1018.5
20260831172004 79 181 0.0 0.0 0.00 0.00 0.00 80 1018.5
20260831171901 79 181 0.0 0.0 0.00 0.00 0.00 80 1018.5
20260831171801 79 181 0.0 0.0 0.00 0.00 0.00 80 1018.5
20260831171702 79 181 0.0 0.0 0.00 0.00 0.00 78 1018.5
20260831171600 79 181 0.0 0.0 0.00 0.00 0.00 79 1018.5
20260831171400 79 181 0.0 0.0 0.00 0.00 0.00 78 1018.5
20260831171300 79 181 0.0 0.0 0.00 0.00 0.00 78 1018.6
20260831171201 79 181 0.0 0.0 0.00 0.00 0.00 78 1018.6
20260831171100 79 181 0.0 0.0 0.00 0.00 0.00 80 1018.5
20260831171002 79 181 0.0 0.0 0.00 0.00 0.00 80 1018.6
20260831170901 79 181 0.0 0.0 0.00 0.00 0.00 80 1018.6
20260831170800 79 181 0.0 0.0 0.00 0.00 0.00 80 1018.6
20260831170701 79 181 0.0 0.0 0.00 0.00 0.00 80 1018.5
20260831170600 79 181 0.0 0.0 0.00 0.00 0.00 81 1018.6
20260831170503 79 181 0.0 0.0 0.00 0.00 0.00 81 1018.6
20260831170401 79 181 0.0 0.0 0.00 0.00 0.00 80 1018.6
20260831170300 79 181 0.0 0.0 0.00 0.00 0.00 81 1018.6
20260831170201 79 181 0.0 0.0 0.00 0.00 0.00 80 1018.6
20260831165900 79 181 0.0 1.0 0.00 0.00 0.00 78 1018.5
20260831165800 79 181 0.0 3.0 0.00 0.00 0.00 78 1018.5
20260831165700 79 181 0.0 3.0 0.00 0.00 0.00 78 1018.5
20260831165601 79 181 0.0 3.0 0.00 0.00 0.00 78 1018.6
20260831165503 79 181 0.0 3.0 0.00 0.00 0.00 79 1018.6
20260831165400 79 181 0.0 3.0 0.00 0.00 0.00 78 1018.6
20260831165100 79 181 0.0 3.0 0.00 0.00 0.00 78 1018.7
20260831165004 79 181 0.0 3.0 0.00 0.00 0.00 76 1018.8
20260831164901 79 181 2.0 3.0 0.00 0.00 0.00 76 1018.7
20260831164801 79 182 2.0 3.0 0.00 0.00 0.00 78 1018.8
20260831164700 79 183 0.0 3.0 0.00 0.00 0.00 76 1018.8
20260831164600 79 183 1.0 3.0 0.00 0.00 0.00 78 1018.8
20260831164504 79 183 2.0 3.0 0.00 0.00 0.00 77 1018.7
20260831164400 79 183 3.0 3.0 0.00 0.00 0.00 78 1018.6
20260831164301 79 176 0.0 3.0 0.00 0.00 0.00 78 1018.6
20260831164200 79 177 1.0 3.0 0.00 0.00 0.00 77 1018.6
20260831164102 79 177 1.0 3.0 0.00 0.00 0.00 77 1018.7
20260831164004 79 168 4.0 4.0 0.00 0.00 0.00 78 1018.7
20260831163901 79 150 1.0 3.0 0.00 0.00 0.00 79 1018.7
20260831163802 79 128 2.0 3.0 0.00 0.00 0.00 79 1018.7
20260831163600 79 124 0.0 3.0 0.00 0.00 0.00 78 1018.7
20260831163504 79 124 0.0 3.0 0.00 0.00 0.00 79 1018.7
20260831163400 79 141 0.0 3.0 0.00 0.00 0.00 79 1018.7
20260831163300 79 141 0.0 3.0 0.00 0.00 0.00 79 1018.7
20260831163101 79 141 1.0 3.0 0.00 0.00 0.00 80 1018.7
20260831163004 79 141 2.0 3.0 0.00 0.00 0.00 80 1018.7
20260831162901 79 142 0.0 3.0 0.00 0.00 0.00 80 1018.7
20260831162801 79 142 1.0 3.0 0.00 0.00 0.00 80 1018.7
20260831162701 79 142 2.0 3.0 0.00 0.00 0.00 83 1018.7
20260831162559 78 103 0.0 3.0 0.00 0.00 0.00 82 1018.7
20260831162504 78 103 0.0 3.0 0.00 0.00 0.00 82 1018.7
20260831162402 78 103 0.0 5.0 0.00 0.00 0.00 81 1018.7
20260831162300 78 103 1.0 5.0 0.00 0.00 0.00 80 1018.7
20260831162200 78 132 2.0 5.0 0.00 0.00 0.00 81 1018.7
20260831162101 78 132 1.0 5.0 0.00 0.00 0.00 81 1018.7
20260831162004 78 155 2.0 5.0 0.00 0.00 0.00 81 1018.6
20260831161902 78 155 3.0 5.0 0.00 0.00 0.00 83 1018.7
20260831161801 78 148 1.0 5.0 0.00 0.00 0.00 82 1018.7
20260831161701 78 148 0.0 5.0 0.00 0.00 0.00 81 1018.7
20260831161600 78 147 0.0 5.0 0.00 0.00 0.00 80 1018.7
20260831161503 78 147 2.0 5.0 0.00 0.00 0.00 81 1018.6
20260831161402 78 148 4.0 5.0 0.00 0.00 0.00 81 1018.6
20260831161300 78 144 3.0 3.0 0.00 0.00 0.00 81 1018.6
20260831161201 78 119 0.0 3.0 0.00 0.00 0.00 81 1018.7
20260831161004 78 126 1.0 2.0 0.00 0.00 0.00 83 1018.7
20260831160859 78 126 1.0 2.0 0.00 0.00 0.00 83 1018.7
20260831160802 78 126 0.0 1.0 0.00 0.00 0.00 83 1018.7
20260831160701 77 126 0.0 1.0 0.00 0.00 0.00 83 1018.8
20260831160504 77 100 1.0 1.0 0.00 0.00 0.00 84 1018.8
20260831160401 77 100 0.0 2.0 0.00 0.00 0.00 83 1018.8
20260831160301 77 100 0.0 2.0 0.00 0.00 0.00 83 1018.8
20260831160200 77 100 0.0 2.0 0.00 0.00 0.00 84 1018.8
20260831160004 77 100 0.0 2.0 0.00 0.00 0.00 84 1018.9
20260831155900 77 100 0.0 2.0 0.00 0.00 0.00 84 1018.9
20260831155801 77 100 0.0 2.0 0.00 0.00 0.00 84 1018.9
20260831155700 77 100 0.0 3.0 0.00 0.00 0.00 84 1018.8
20260831155600 77 100 0.0 6.0 0.00 0.00 0.00 84 1018.9
20260831155504 77 100 1.0 6.0 0.00 0.00 0.00 84 1018.9
20260831155400 77 100 0.0 6.0 0.00 0.00 0.00 84 1018.9
20260831155301 77 100 1.0 6.0 0.00 0.00 0.00 85 1018.9
20260831155200 77 96 0.0 6.0 0.00 0.00 0.00 85 1018.8
20260831155101 77 96 1.0 6.0 0.00 0.00 0.00 84 1018.8
20260831155000 77 96 0.0 6.0 0.00 0.00 0.00 84 1018.8
20260831154900 77 96 2.0 6.0 0.00 0.00 0.00 84 1018.8
20260831154800 77 96 1.0 6.0 0.00 0.00 0.00 84 1018.8
20260831154659 77 96 2.0 6.0 0.00 0.00 0.00 83 1018.8
20260831154600 77 153 1.0 5.0 0.00 0.00 0.00 83 1018.8
20260831154400 77 88 0.0 5.0 0.00 0.00 0.00 83 1018.8
20260831154300 77 88 0.0 5.0 0.00 0.00 0.00 84 1018.8
20260831154101 77 76 3.0 5.0 0.00 0.00 0.00 85 1018.8
20260831154004 77 71 4.0 4.0 0.00 0.00 0.00 85 1018.8
20260831153900 76 78 1.0 4.0 0.00 0.00 0.00 84 1018.8
20260831153700 76 84 0.0 4.0 0.00 0.00 0.00 84 1018.9
20260831153559 76 74 0.0 4.0 0.00 0.00 0.00 84 1018.9
20260831153401 76 74 0.0 4.0 0.00 0.00 0.00 84 1018.9
20260831153200 76 109 0.0 3.0 0.00 0.00 0.00 84 1019.0
20260831153101 76 117 0.0 4.0 0.00 0.00 0.00 85 1019.0
20260831153004 76 117 1.0 5.0 0.00 0.00 0.00 85 1019.0
20260831152901 76 118 2.0 5.0 0.00 0.00 0.00 85 1019.0
20260831152759 76 118 0.0 5.0 0.00 0.00 0.00 84 1019.0
20260831152701 76 119 0.0 5.0 0.00 0.00 0.00 84 1019.0
20260831152600 76 119 0.0 5.0 0.00 0.00 0.00 84 1019.0
20260831152503 76 77 0.0 5.0 0.00 0.00 0.00 84 1019.0
20260831152301 76 77 0.0 5.0 0.00 0.00 0.00 84 1019.0
20260831152159 76 77 3.0 5.0 0.00 0.00 0.00 84 1019.0
20260831152101 76 66 4.0 4.0 0.00 0.00 0.00 84 1019.0
20260831152004 76 118 2.0 4.0 0.00 0.00 0.00 84 1019.0
20260831151902 76 178 1.0 4.0 0.00 0.00 0.00 84 1019.0
20260831151800 76 54 1.0 4.0 0.00 0.00 0.00 84 1019.0
20260831151700 76 32 2.0 4.0 0.00 0.00 0.00 84 1019.0
20260831151504 77 84 0.0 7.0 0.00 0.00 0.00 84 1019.1
20260831151400 77 84 0.0 7.0 0.00 0.00 0.00 84 1019.0
20260831151200 77 95 3.0 7.0 0.00 0.00 0.00 84 1019.1
20260831151059 77 40 1.0 7.0 0.00 0.00 0.00 84 1019.1
20260831151004 77 69 1.0 7.0 0.00 0.00 0.00 85 1019.1
20260831150900 76 94 1.0 7.0 0.00 0.00 0.00 84 1019.0
20260831150700 76 109 3.0 7.0 0.00 0.00 0.00 84 1019.1
20260831150601 76 29 3.0 6.0 0.00 0.00 0.00 84 1019.1
20260831150503 76 73 1.0 6.0 0.00 0.00 0.00 83 1019.1
20260831150400 76 73 1.0 6.0 0.00 0.00 0.00 84 1019.1
20260831150300 76 63 3.0 6.0 0.00 0.00 0.00 84 1019.1
20260831150200 76 70 2.0 6.0 0.00 0.00 0.00 84 1019.0
20260831150005 76 64 1.0 6.0 0.00 0.00 0.00 84 1019.0
20260831145901 76 78 1.0 6.0 0.00 0.00 0.00 84 1019.0
20260831145800 76 79 3.0 6.0 0.00 0.00 0.00 84 1019.0
20260831145600 76 62 3.0 6.0 0.00 0.00 0.00 84 1018.9
20260831145505 76 78 3.0 6.0 0.00 0.00 0.00 84 1018.9
20260831145400 76 80 3.0 5.0 0.00 0.00 0.00 83 1018.9
20260831145300 76 53 2.0 7.0 0.00 0.00 0.00 83 1018.8
20260831145202 76 63 4.0 7.0 0.00 0.00 0.00 83 1018.8
20260831145100 76 213 0.0 7.0 0.00 0.00 0.00 83 1018.8
20260831145004 77 215 3.0 7.0 0.00 0.00 0.00 82 1018.7
20260831144901 77 90 1.0 7.0 0.00 0.00 0.00 82 1018.7
20260831144801 77 101 0.0 7.0 0.00 0.00 0.00 83 1018.8
20260831144504 76 137 1.0 7.0 0.00 0.00 0.00 83 1018.8
20260831144400 76 150 4.0 7.0 0.00 0.00 0.00 84 1018.9
20260831144300 76 245 8.0 8.0 0.00 0.00 0.00 86 1018.9
20260831144100 76 140 0.0 4.0 0.00 0.00 0.00 85 1018.9
20260831144005 76 140 1.0 4.0 0.00 0.00 0.00 85 1019.0
20260831143900 76 108 3.0 4.0 0.00 0.00 0.00 86 1019.0
20260831143800 76 132 0.0 4.0 0.00 0.00 0.00 86 1018.9
20260831143559 75 109 1.0 4.0 0.00 0.00 0.00 86 1019.0
20260831143400 75 105 3.0 4.0 0.00 0.00 0.00 86 1019.0
20260831143200 75 107 0.0 4.0 0.00 0.00 0.00 85 1019.0
20260831143102 75 107 0.0 4.0 0.00 0.00 0.00 85 1019.0
20260831143005 75 88 0.0 4.0 0.00 0.00 0.00 85 1019.1
20260831142901 75 88 0.0 4.0 0.00 0.00 0.00 85 1019.1
20260831142802 75 88 1.0 4.0 0.00 0.00 0.00 85 1019.1
20260831142700 75 76 3.0 4.0 0.00 0.00 0.00 85 1019.1
20260831142600 75 113 2.0 4.0 0.00 0.00 0.00 85 1019.2
20260831142401 75 77 0.0 4.0 0.00 0.00 0.00 84 1019.2
20260831142300 75 77 2.0 4.0 0.00 0.00 0.00 84 1019.2
20260831142202 75 77 1.0 6.0 0.00 0.00 0.00 84 1019.2
20260831142100 75 78 0.0 6.0 0.00 0.00 0.00 84 1019.3
20260831141900 75 78 0.0 6.0 0.00 0.00 0.00 84 1019.3
20260831141702 75 78 1.0 6.0 0.00 0.00 0.00 83 1019.3
20260831141504 75 123 1.0 6.0 0.00 0.00 0.00 83 1019.3
20260831141401 75 107 0.0 6.0 0.00 0.00 0.00 83 1019.3
20260831141301 75 82 0.0 6.0 0.00 0.00 0.00 83 1019.3
20260831141100 75 140 0.0 5.0 0.00 0.00 0.00 83 1019.3
20260831141004 75 140 1.0 5.0 0.00 0.00 0.00 83 1019.3
20260831140900 76 140 2.0 5.0 0.00 0.00 0.00 83 1019.4
20260831140801 76 112 0.0 5.0 0.00 0.00 0.00 83 1019.4
20260831140700 76 42 1.0 5.0 0.00 0.00 0.00 83 1019.4
20260831140504 76 85 1.0 4.0 0.00 0.00 0.00 83 1019.4
20260831140401 76 69 2.0 4.0 0.00 0.00 0.00 83 1019.4
20260831140201 75 55 2.0 4.0 0.00 0.00 0.00 85 1019.5
20260831140101 75 138 1.0 3.0 0.00 0.00 0.00 86 1019.4
20260831135859 75 122 1.0 3.0 0.00 0.00 0.00 87 1019.5
20260831135801 75 122 0.0 3.0 0.00 0.00 0.00 86 1019.5
20260831135700 75 122 1.0 3.0 0.00 0.00 0.00 85 1019.4
20260831135559 74 122 0.0 3.0 0.00 0.00 0.00 86 1019.4
20260831135503 74 122 0.0 3.0 0.00 0.00 0.00 85 1019.4
20260831135359 74 119 2.0 3.0 0.00 0.00 0.00 86 1019.3
20260831135259 74 119 0.0 3.0 0.00 0.00 0.00 85 1019.3
20260831135159 74 119 0.0 4.0 0.00 0.00 0.00 85 1019.3
20260831135059 74 119 1.0 4.0 0.00 0.00 0.00 85 1019.2
20260831135004 74 119 2.0 4.0 0.00 0.00 0.00 85 1019.3
20260831134859 74 119 0.0 4.0 0.00 0.00 0.00 85 1019.3
20260831134600 74 119 0.0 4.0 0.00 0.00 0.00 85 1019.5
20260831134359 74 104 2.0 4.0 0.00 0.00 0.00 86 1019.3
20260831134259 74 88 3.0 4.0 0.00 0.00 0.00 87 1019.4
20260831134200 74 46 1.0 3.0 0.00 0.00 0.00 86 1019.4
20260831134059 74 74 0.0 3.0 0.00 0.00 0.00 87 1019.4
20260831134005 74 61 1.0 3.0 0.00 0.00 0.00 86 1019.4
20260831133858 74 59 0.0 3.0 0.00 0.00 0.00 86 1019.4
20260831133759 74 57 2.0 3.0 0.00 0.00 0.00 86 1019.4
20260831133659 74 150 0.0 3.0 0.00 0.00 0.00 85 1019.5
20260831133559 74 150 1.0 3.0 0.00 0.00 0.00 85 1019.5
20260831133301 74 133 1.0 3.0 0.00 0.00 0.00 86 1019.4
20260831133159 74 135 0.0 3.0 0.00 0.00 0.00 87 1019.4
20260831133100 74 136 1.0 3.0 0.00 0.00 0.00 89 1019.4
20260831133004 74 125 2.0 2.0 0.00 0.00 0.00 90 1019.4
20260831132900 74 123 0.0 2.0 0.00 0.00 0.00 88 1019.4
20260831132800 74 123 0.0 2.0 0.00 0.00 0.00 89 1019.4
20260831132700 74 123 0.0 2.0 0.00 0.00 0.00 88 1019.5
20260831132600 74 124 0.0 2.0 0.00 0.00 0.00 88 1019.5
20260831132501 74 123 0.0 2.0 0.00 0.00 0.00 88 1019.5
20260831132359 74 124 0.0 2.0 0.00 0.00 0.00 90 1019.5
20260831132300 74 123 0.0 2.0 0.00 0.00 0.00 91 1019.5
20260831132200 74 123 0.0 2.0 0.00 0.00 0.00 91 1019.5
20260831132004 74 124 0.0 2.0 0.00 0.00 0.00 90 1019.4
20260831131800 73 123 2.0 2.0 0.00 0.00 0.00 89 1019.4
20260831131600 73 125 0.0 0.0 0.00 0.00 0.00 91 1019.4
20260831131359 73 125 0.0 1.0 0.00 0.00 0.00 92 1019.4
20260831131159 73 125 0.0 1.0 0.00 0.00 0.00 93 1019.4
20260831131059 73 125 0.0 1.0 0.00 0.00 0.00 93 1019.4
20260831131002 73 125 0.0 1.0 0.00 0.00 0.00 93 1019.4
20260831130903 73 125 0.0 1.0 0.00 0.00 0.00 93 1019.4
20260831130659 73 125 0.0 1.0 0.00 0.00 0.00 92 1019.3
20260831130601 73 125 0.0 1.0 0.00 0.00 0.00 92 1019.3
20260831130504 73 120 0.0 0.0 0.00 0.00 0.00 92 1019.3
20260831130359 73 120 0.0 0.0 0.00 0.00 0.00 93 1019.3
20260831130258 73 120 0.0 0.0 0.00 0.00 0.00 93 1019.3
20260831130200 73 120 0.0 0.0 0.00 0.00 0.00 93 1019.3
20260831130059 73 120 0.0 0.0 0.00 0.00 0.00 92 1019.3
20260831130003 73 120 0.0 0.0 0.00 0.00 0.00 93 1019.3
20260831125901 73 120 0.0 0.0 0.00 0.00 0.00 93 1019.3
20260831125759 73 120 0.0 0.0 0.00 0.00 0.00 93 1019.3
20260831125659 73 120 0.0 0.0 0.00 0.00 0.00 94 1019.3
20260831125559 72 120 0.0 0.0 0.00 0.00 0.00 94 1019.3
20260831125504 72 120 0.0 0.0 0.00 0.00 0.00 94 1019.2
20260831125400 72 120 0.0 0.0 0.00 0.00 0.00 94 1019.2
20260831125300 72 120 0.0 0.0 0.00 0.00 0.00 95 1019.2
20260831125159 72 120 0.0 0.0 0.00 0.00 0.00 95 1019.1
20260831125100 72 120 0.0 0.0 0.00 0.00 0.00 95 1019.2
20260831125002 72 120 0.0 0.0 0.00 0.00 0.00 94 1019.2
20260831124859 72 120 0.0 0.0 0.00 0.00 0.00 95 1019.2
20260831124759 72 120 0.0 0.0 0.00 0.00 0.00 95 1019.2
20260831124559 72 120 0.0 0.0 0.00 0.00 0.00 95 1019.2
20260831124504 72 120 0.0 0.0 0.00 0.00 0.00 95 1019.2
20260831124400 72 120 0.0 0.0 0.00 0.00 0.00 95 1019.1
20260831124300 72 120 0.0 0.0 0.00 0.00 0.00 96 1019.1
20260831124158 72 120 0.0 0.0 0.00 0.00 0.00 96 1019.1
20260831124059 71 120 0.0 0.0 0.00 0.00 0.00 96 1019.0
20260831124003 71 120 0.0 0.0 0.00 0.00 0.00 96 1019.0
20260831123859 71 120 0.0 0.0 0.00 0.00 0.00 96 1019.0
20260831123759 71 120 0.0 0.0 0.00 0.00 0.00 96 1019.0
20260831123658 71 120 0.0 0.0 0.00 0.00 0.00 96 1019.0
20260831123600 71 120 0.0 0.0 0.00 0.00 0.00 97 1019.0
20260831123501 71 120 0.0 0.0 0.00 0.00 0.00 97 1018.9
20260831123359 71 120 0.0 0.0 0.00 0.00 0.00 97 1018.9
20260831123259 71 120 0.0 0.0 0.00 0.00 0.00 97 1018.9
20260831123159 71 120 0.0 0.0 0.00 0.00 0.00 97 1018.9
20260831123003 71 120 0.0 0.0 0.00 0.00 0.00 97 1019.0
20260831122858 71 120 0.0 0.0 0.00 0.00 0.00 97 1019.0
20260831122801 71 120 0.0 0.0 0.00 0.00 0.00 97 1019.0
20260831122600 71 120 0.0 0.0 0.00 0.00 0.00 97 1019.1
20260831122503 71 120 0.0 0.0 0.00 0.00 0.00 97 1019.1
20260831122402 70 120 0.0 0.0 0.00 0.00 0.00 97 1019.1
20260831122259 70 120 0.0 0.0 0.00 0.00 0.00 97 1019.1
20260831122159 70 120 0.0 0.0 0.00 0.00 0.00 97 1019.0
20260831122100 70 120 0.0 0.0 0.00 0.00 0.00 97 1019.0
20260831122003 70 120 0.0 0.0 0.00 0.00 0.00 97 1019.0
20260831121859 70 120 0.0 0.0 0.00 0.00 0.00 97 1019.0
20260831121700 70 120 0.0 0.0 0.00 0.00 0.00 97 1019.1
20260831121559 70 120 0.0 0.0 0.00 0.00 0.00 97 1019.0
20260831121503 70 120 0.0 0.0 0.00 0.00 0.00 97 1019.0
20260831121359 70 120 0.0 0.0 0.00 0.00 0.00 97 1019.0
20260831121300 70 120 0.0 0.0 0.00 0.00 0.00 97 1019.0
20260831121158 70 120 0.0 0.0 0.00 0.00 0.00 97 1019.0
20260831120900 70 120 0.0 0.0 0.00 0.00 0.00 97 1019.0
20260831120759 69 120 0.0 0.0 0.00 0.00 0.00 97 1019.0
20260831120658 69 120 0.0 0.0 0.00 0.00 0.00 97 1018.9
20260831120559 69 120 0.0 0.0 0.00 0.00 0.00 97 1019.0
20260831120501 69 120 0.0 0.0 0.00 0.00 0.00 97 1019.0
20260831120400 69 120 0.0 0.0 0.00 0.00 0.00 97 1019.0
20260831120259 69 120 0.0 0.0 0.00 0.00 0.00 97 1019.0
20260831120159 69 120 0.0 0.0 0.00 0.00 0.00 97 1019.0
20260831120059 69 120 0.0 0.0 0.00 0.00 0.00 97 1019.0
20260831120004 69 120 0.0 0.0 0.00 0.00 0.00 97 1018.9
20260831115901 69 120 0.0 0.0 0.00 0.00 0.00 97 1018.9
20260831115800 69 120 0.0 0.0 0.00 0.00 0.00 97 1019.0
20260831115703 69 120 0.0 0.0 0.00 0.00 0.00 97 1018.9
20260831115603 69 120 0.0 0.0 0.00 0.00 0.00 97 1019.0
20260831115504 69 120 0.0 0.0 0.00 0.00 0.00 97 1019.0
20260831115300 69 120 0.0 0.0 0.00 0.00 0.00 97 1019.0
20260831115105 69 120 0.0 0.0 0.00 0.00 0.00 97 1019.0
20260831115004 69 120 0.0 0.0 0.00 0.00 0.00 97 1018.9
20260831114900 69 120 0.0 0.0 0.00 0.00 0.00 97 1018.9
20260831114701 69 120 0.0 0.0 0.00 0.00 0.00 97 1018.9
20260831114601 69 120 0.0 0.0 0.00 0.00 0.00 97 1018.9
20260831114505 69 120 0.0 0.0 0.00 0.00 0.00 97 1018.9
20260831114401 69 120 0.0 0.0 0.00 0.00 0.00 97 1018.9
20260831114305 69 120 0.0 0.0 0.00 0.00 0.00 97 1018.9
20260831114202 69 120 0.0 0.0 0.00 0.00 0.00 97 1018.9
20260831114101 69 120 0.0 0.0 0.00 0.00 0.00 97 1018.9
20260831114003 69 120 0.0 0.0 0.00 0.00 0.00 97 1018.9
20260831113900 69 120 0.0 0.0 0.00 0.00 0.00 97 1018.8
20260831113801 69 120 0.0 0.0 0.00 0.00 0.00 97 1018.8
20260831113700 68 120 0.0 0.0 0.00 0.00 0.00 97 1018.8
20260831113601 68 120 0.0 0.0 0.00 0.00 0.00 97 1018.8
20260831113503 68 120 0.0 0.0 0.00 0.00 0.00 97 1018.8
20260831113400 68 120 0.0 0.0 0.00 0.00 0.00 97 1018.8
20260831113300 68 120 0.0 0.0 0.00 0.00 0.00 97 1018.8
20260831113101 68 120 0.0 0.0 0.00 0.00 0.00 97 1018.8
20260831112900 68 120 0.0 0.0 0.00 0.00 0.00 97 1018.8
20260831112800 68 120 0.0 0.0 0.00 0.00 0.00 97 1018.8
20260831112600 68 120 0.0 0.0 0.00 0.00 0.00 97 1018.8
20260831112503 68 120 0.0 0.0 0.00 0.00 0.00 97 1018.8
20260831112401 68 120 0.0 0.0 0.00 0.00 0.00 97 1018.8
20260831112201 68 120 0.0 0.0 0.00 0.00 0.00 97 1018.8
20260831112005 68 120 0.0 0.0 0.00 0.00 0.00 97 1018.8
20260831111901 68 120 0.0 0.0 0.00 0.00 0.00 97 1018.8
20260831111800 68 120 0.0 0.0 0.00 0.00 0.00 97 1018.8
20260831111701 68 120 0.0 0.0 0.00 0.00 0.00 97 1018.8
20260831111600 68 120 0.0 0.0 0.00 0.00 0.00 97 1018.8
20260831111401 68 120 0.0 0.0 0.00 0.00 0.00 97 1018.9
20260831111300 68 120 0.0 0.0 0.00 0.00 0.00 97 1018.8
20260831111200 68 120 0.0 0.0 0.00 0.00 0.00 97 1018.8
20260831111059 68 120 0.0 0.0 0.00 0.00 0.00 97 1018.8
20260831111003 68 120 0.0 0.0 0.00 0.00 0.00 97 1018.7
20260831110902 68 120 0.0 0.0 0.00 0.00 0.00 97 1018.7
20260831110700 68 120 0.0 0.0 0.00 0.00 0.00 97 1018.7
20260831110559 68 120 0.0 0.0 0.00 0.00 0.00 97 1018.7
20260831110504 68 120 0.0 0.0 0.00 0.00 0.00 97 1018.7
20260831110401 68 120 0.0 0.0 0.00 0.00 0.00 97 1018.6
20260831110301 68 120 0.0 0.0 0.00 0.00 0.00 97 1018.6
20260831110201 68 120 0.0 0.0 0.00 0.00 0.00 97 1018.5
20260831110100 68 120 0.0 0.0 0.00 0.00 0.00 97 1018.5
20260831110004 68 120 0.0 0.0 0.00 0.00 0.00 97 1018.5
20260831105901 68 120 0.0 0.0 0.00 0.00 0.00 97 1018.5
20260831105800 68 120 0.0 0.0 0.00 0.00 0.00 97 1018.4
20260831105559 68 120 0.0 0.0 0.00 0.00 0.00 97 1018.4
20260831105301 68 120 0.0 0.0 0.00 0.00 0.00 97 1018.3
20260831105200 68 120 0.0 0.0 0.00 0.00 0.00 97 1018.3
20260831105059 68 120 0.0 0.0 0.00 0.00 0.00 97 1018.2
20260831105003 68 120 0.0 0.0 0.00 0.00 0.00 97 1018.2
20260831104859 68 120 0.0 0.0 0.00 0.00 0.00 97 1018.2
20260831104759 68 120 0.0 0.0 0.00 0.00 0.00 97 1018.1
20260831104700 68 120 0.0 0.0 0.00 0.00 0.00 97 1018.2
20260831104600 68 120 0.0 0.0 0.00 0.00 0.00 97 1018.2
20260831104259 68 120 0.0 0.0 0.00 0.00 0.00 97 1018.1
20260831104100 68 120 0.0 0.0 0.00 0.00 0.00 97 1018.0
20260831104000 68 120 0.0 0.0 0.00 0.00 0.00 97 1018.1
20260831103857 68 120 0.0 0.0 0.00 0.00 0.00 97 1018.1
20260831103801 68 120 0.0 0.0 0.00 0.00 0.00 97 1018.1
20260831103658 68 120 0.0 0.0 0.00 0.00 0.00 97 1018.1
20260831103559 68 120 0.0 0.0 0.00 0.00 0.00 97 1018.1
20260831103400 68 120 0.0 0.0 0.00 0.00 0.00 97 1018.1
20260831103258 68 120 0.0 0.0 0.00 0.00 0.00 97 1018.1
20260831103158 68 120 0.0 0.0 0.00 0.00 0.00 97 1018.1
20260831103059 68 120 0.0 0.0 0.00 0.00 0.00 97 1018.1
20260831103001 68 120 0.0 0.0 0.00 0.00 0.00 97 1018.1
20260831102900 68 120 0.0 0.0 0.00 0.00 0.00 97 1018.1
20260831102759 68 120 0.0 0.0 0.00 0.00 0.00 97 1018.1
20260831102659 68 120 0.0 0.0 0.00 0.00 0.00 97 1018.1
20260831102600 68 120 0.0 0.0 0.00 0.00 0.00 97 1018.1
20260831102503 68 120 0.0 0.0 0.00 0.00 0.00 97 1018.1
20260831102359 68 120 0.0 0.0 0.00 0.00 0.00 97 1018.1
20260831102259 68 120 0.0 0.0 0.00 0.00 0.00 97 1018.1
20260831102200 68 120 0.0 0.0 0.00 0.00 0.00 97 1018.1
20260831102059 68 120 0.0 0.0 0.00 0.00 0.00 97 1018.0
20260831102001 68 120 0.0 0.0 0.00 0.00 0.00 97 1018.0
20260831101859 68 120 0.0 0.0 0.00 0.00 0.00 97 1018.0
20260831101759 68 120 0.0 0.0 0.00 0.00 0.00 97 1018.0
20260831101559 68 120 0.0 0.0 0.00 0.00 0.00 97 1017.9
20260831101359 68 120 0.0 0.0 0.00 0.00 0.00 97 1017.7
20260831101259 68 120 0.0 0.0 0.00 0.00 0.00 97 1017.7
20260831101200 68 120 0.0 0.0 0.00 0.00 0.00 97 1017.8
20260831101059 68 120 0.0 0.0 0.00 0.00 0.00 97 1017.8
20260831101000 68 120 0.0 0.0 0.00 0.00 0.00 97 1017.9
20260831100801 68 120 0.0 0.0 0.00 0.00 0.00 97 1018.0
20260831100659 68 120 0.0 0.0 0.00 0.00 0.00 97 1018.0
20260831100559 68 120 0.0 0.0 0.00 0.00 0.00 97 1018.0
20260831100504 68 120 0.0 0.0 0.00 0.00 0.00 97 1018.0
20260831100259 68 120 0.0 0.0 0.00 0.00 0.00 97 1018.0
20260831100200 68 120 0.0 0.0 0.00 0.00 0.00 97 1018.0
20260831100100 68 120 0.0 0.0 0.00 0.00 0.00 97 1018.0
20260831100005 68 120 0.0 0.0 0.00 0.00 0.00 97 1017.9
20260831095900 68 120 0.0 0.0 0.00 0.00 0.00 97 1017.9
20260831095802 68 120 0.0 0.0 0.00 0.00 0.00 97 1017.9
20260831095601 68 120 0.0 0.0 0.00 0.00 0.00 97 1017.8
20260831095359 68 120 0.0 0.0 0.00 0.00 0.00 97 1018.0
20260831095300 68 120 0.0 0.0 0.00 0.00 0.00 97 1018.0
20260831095102 68 120 0.0 0.0 0.00 0.00 0.00 97 1018.0
20260831095004 68 120 0.0 0.0 0.00 0.00 0.00 97 1018.0
20260831094859 68 120 0.0 0.0 0.00 0.00 0.00 97 1018.0
20260831094800 68 120 0.0 0.0 0.00 0.00 0.00 97 1018.0
20260831094700 68 120 0.0 0.0 0.00 0.00 0.00 97 1018.0
20260831094504 68 120 0.0 0.0 0.00 0.00 0.00 97 1018.0
20260831094401 68 120 0.0 0.0 0.00 0.00 0.00 97 1018.0
20260831094259 68 120 0.0 0.0 0.00 0.00 0.00 97 1018.0
20260831094200 68 120 0.0 0.0 0.00 0.00 0.00 97 1018.0
20260831094100 68 120 0.0 0.0 0.00 0.00 0.00 97 1018.0
20260831094004 68 120 0.0 0.0 0.00 0.00 0.00 97 1018.0
20260831093901 68 120 0.0 0.0 0.00 0.00 0.00 97 1018.0
20260831093800 68 120 0.0 0.0 0.00 0.00 0.00 97 1018.0
20260831093700 68 120 0.0 0.0 0.00 0.00 0.00 97 1018.0
20260831093600 68 120 0.0 0.0 0.00 0.00 0.00 97 1018.0
20260831093502 68 120 0.0 0.0 0.00 0.00 0.00 97 1018.0
20260831093359 68 120 0.0 0.0 0.00 0.00 0.00 97 1018.0
20260831093301 68 120 0.0 0.0 0.00 0.00 0.00 97 1018.0
20260831093200 68 120 0.0 0.0 0.00 0.00 0.00 97 1018.0
20260831093059 68 120 0.0 0.0 0.00 0.00 0.00 97 1018.0
20260831093004 68 120 0.0 0.0 0.00 0.00 0.00 97 1018.0
20260831092900 68 120 0.0 0.0 0.00 0.00 0.00 97 1018.0
20260831092801 68 120 0.0 0.0 0.00 0.00 0.00 97 1017.9
20260831092700 68 120 0.0 0.0 0.00 0.00 0.00 97 1017.8
20260831092600 68 120 0.0 0.0 0.00 0.00 0.00 97 1017.8
20260831092504 68 120 0.0 0.0 0.00 0.00 0.00 97 1017.8
20260831092401 68 120 0.0 0.0 0.00 0.00 0.00 97 1017.8
20260831092300 68 120 0.0 0.0 0.00 0.00 0.00 97 1017.8
20260831092202 68 120 0.0 0.0 0.00 0.00 0.00 97 1017.8
20260831092005 68 120 0.0 0.0 0.00 0.00 0.00 97 1017.8
20260831091859 68 120 0.0 0.0 0.00 0.00 0.00 97 1017.8
20260831091759 68 120 0.0 0.0 0.00 0.00 0.00 97 1017.8
20260831091700 68 120 0.0 0.0 0.00 0.00 0.00 97 1017.7
20260831091602 68 120 0.0 0.0 0.00 0.00 0.00 97 1017.8
20260831091503 68 120 0.0 0.0 0.00 0.00 0.00 97 1017.8
20260831091300 68 120 0.0 0.0 0.00 0.00 0.00 97 1017.8
20260831091200 68 120 0.0 0.0 0.00 0.00 0.00 97 1017.7
20260831091100 68 120 0.0 0.0 0.00 0.00 0.00 97 1017.7
20260831091005 68 120 0.0 0.0 0.00 0.00 0.00 97 1017.7
20260831090901 68 120 0.0 0.0 0.00 0.00 0.00 97 1017.7
20260831090800 68 120 0.0 0.0 0.00 0.00 0.00 97 1017.7
20260831090700 68 120 0.0 0.0 0.00 0.00 0.00 97 1017.7
20260831090602 68 120 0.0 0.0 0.00 0.00 0.00 97 1017.7
20260831090504 68 120 0.0 0.0 0.00 0.00 0.00 97 1017.7
20260831090400 68 120 0.0 0.0 0.00 0.00 0.00 97 1017.7
20260831090300 68 120 0.0 0.0 0.00 0.00 0.00 97 1017.6
20260831090201 68 120 0.0 0.0 0.00 0.00 0.00 97 1017.6
20260831090100 68 120 0.0 0.0 0.00 0.00 0.00 97 1017.6
20260831090003 68 120 0.0 0.0 0.00 0.00 0.00 97 1017.6
20260831085900 68 120 0.0 0.0 0.00 0.00 0.00 97 1017.6
20260831085659 68 120 0.0 0.0 0.00 0.00 0.00 97 1017.6
20260831085559 68 120 0.0 0.0 0.00 0.00 0.00 97 1017.6
20260831085502 68 120 0.0 0.0 0.00 0.00 0.00 97 1017.6
20260831085359 68 120 0.0 0.0 0.00 0.00 0.00 97 1017.6
20260831085300 68 120 0.0 0.0 0.00 0.00 0.00 97 1017.6
20260831085159 68 120 0.0 0.0 0.00 0.00 0.00 97 1017.6
20260831085101 68 120 0.0 0.0 0.00 0.00 0.00 97 1017.6
20260831085004 68 120 0.0 0.0 0.00 0.00 0.00 97 1017.6
20260831084900 68 120 0.0 0.0 0.00 0.00 0.00 97 1017.6
20260831084759 68 120 0.0 0.0 0.00 0.00 0.00 97 1017.6
20260831084659 68 120 0.0 0.0 0.00 0.00 0.00 97 1017.5
20260831084559 68 120 0.0 0.0 0.00 0.00 0.00 97 1017.6
20260831084504 68 120 0.0 0.0 0.00 0.00 0.00 97 1017.5
20260831084400 68 120 0.0 0.0 0.00 0.00 0.00 97 1017.5
20260831084159 68 120 0.0 0.0 0.00 0.00 0.00 97 1017.5
20260831084100 68 120 0.0 0.0 0.00 0.00 0.00 97 1017.5
20260831084000 68 120 0.0 0.0 0.00 0.00 0.00 97 1017.5
20260831083900 68 120 0.0 0.0 0.00 0.00 0.00 97 1017.5
20260831083800 68 120 0.0 0.0 0.00 0.00 0.00 97 1017.5
20260831083659 68 120 0.0 0.0 0.00 0.00 0.00 97 1017.5
20260831083502 68 120 0.0 0.0 0.00 0.00 0.00 97 1017.5
20260831083400 68 120 0.0 2.0 0.00 0.00 0.00 97 1017.5
20260831083258 68 120 0.0 2.0 0.00 0.00 0.00 97 1017.5
20260831083200 68 120 0.0 2.0 0.00 0.00 0.00 97 1017.4
20260831083100 68 120 0.0 2.0 0.00 0.00 0.00 97 1017.4
20260831083000 68 120 0.0 2.0 0.00 0.00 0.00 97 1017.4
20260831082900 68 120 0.0 2.0 0.00 0.00 0.00 97 1017.4
20260831082759 68 120 0.0 2.0 0.00 0.00 0.00 97 1017.4
20260831082700 68 120 0.0 2.0 0.00 0.00 0.00 97 1017.4
20260831082559 69 120 0.0 2.0 0.00 0.00 0.00 97 1017.4
20260831082358 69 120 0.0 0.0 0.00 0.00 0.00 97 1017.4
20260831082259 69 120 0.0 0.0 0.00 0.00 0.00 97 1017.4
20260831082159 69 120 0.0 0.0 0.00 0.00 0.00 97 1017.4
20260831082001 69 120 0.0 0.0 0.00 0.00 0.00 97 1017.4
20260831081859 69 120 0.0 0.0 0.00 0.00 0.00 97 1017.4
20260831081800 69 120 0.0 0.0 0.00 0.00 0.00 97 1017.5
20260831081700 69 120 0.0 0.0 0.00 0.00 0.00 97 1017.5
20260831081559 69 120 0.0 0.0 0.00 0.00 0.00 97 1017.5
20260831081500 69 120 0.0 0.0 0.00 0.00 0.00 97 1017.4
20260831081358 69 120 0.0 0.0 0.00 0.00 0.00 97 1017.5
20260831081259 69 120 0.0 0.0 0.00 0.00 0.00 97 1017.4
20260831081159 69 120 0.0 0.0 0.00 0.00 0.00 96 1017.4
20260831081100 69 120 0.0 0.0 0.00 0.00 0.00 96 1017.4
20260831081001 69 120 0.0 0.0 0.00 0.00 0.00 96 1017.4
20260831080859 69 120 0.0 0.0 0.00 0.00 0.00 96 1017.4
20260831080800 69 120 0.0 0.0 0.00 0.00 0.00 96 1017.3
20260831080659 69 120 0.0 0.0 0.00 0.00 0.00 96 1017.4
20260831080501 69 120 0.0 0.0 0.00 0.00 0.00 96 1017.4
20260831080359 69 120 0.0 0.0 0.00 0.00 0.00 97 1017.4
20260831080259 69 120 0.0 0.0 0.00 0.00 0.00 97 1017.4
20260831080200 69 120 0.0 0.0 0.00 0.00 0.00 97 1017.4
20260831080059 69 120 0.0 0.0 0.00 0.00 0.00 96 1017.4
20260831080004 69 120 0.0 0.0 0.00 0.00 0.00 96 1017.3
20260831075900 69 120 0.0 0.0 0.00 0.00 0.00 96 1017.3
20260831075800 69 120 0.0 0.0 0.00 0.00 0.00 96 1017.3
20260831075700 69 120 0.0 0.0 0.00 0.00 0.00 96 1017.3
20260831075559 69 120 0.0 0.0 0.00 0.00 0.00 96 1017.2
20260831075503 69 120 0.0 0.0 0.00 0.00 0.00 96 1017.2
20260831075403 69 120 0.0 0.0 0.00 0.00 0.00 96 1017.3
20260831075300 69 120 0.0 0.0 0.00 0.00 0.00 96 1017.3
20260831075200 70 120 0.0 0.0 0.00 0.00 0.00 96 1017.3
20260831075101 70 120 0.0 0.0 0.00 0.00 0.00 96 1017.3
20260831074900 70 120 0.0 0.0 0.00 0.00 0.00 96 1017.4
20260831074700 70 120 0.0 0.0 0.00 0.00 0.00 96 1017.4
20260831074600 70 120 0.0 0.0 0.00 0.00 0.00 96 1017.4
20260831074502 70 120 0.0 0.0 0.00 0.00 0.00 96 1017.4
20260831074359 70 120 0.0 0.0 0.00 0.00 0.00 96 1017.4
20260831074259 70 120 0.0 0.0 0.00 0.00 0.00 96 1017.5
20260831074159 70 120 0.0 0.0 0.00 0.00 0.00 96 1017.5
20260831074059 70 120 0.0 0.0 0.00 0.00 0.00 96 1017.5
20260831074000 70 120 0.0 0.0 0.00 0.00 0.00 96 1017.5
20260831073901 70 120 0.0 0.0 0.00 0.00 0.00 96 1017.5
20260831073759 70 120 0.0 0.0 0.00 0.00 0.00 96 1017.5
20260831073700 70 120 0.0 0.0 0.00 0.00 0.00 96 1017.5
20260831073558 70 120 0.0 0.0 0.00 0.00 0.00 96 1017.5
20260831073503 70 120 0.0 0.0 0.00 0.00 0.00 96 1017.5
20260831073359 70 120 0.0 0.0 0.00 0.00 0.00 96 1017.5
20260831073200 70 120 0.0 0.0 0.00 0.00 0.00 95 1017.5
20260831073059 70 120 0.0 0.0 0.00 0.00 0.00 95 1017.5
20260831072900 70 120 0.0 0.0 0.00 0.00 0.00 95 1017.5
20260831072759 70 120 0.0 0.0 0.00 0.00 0.00 95 1017.4
20260831072700 70 120 0.0 0.0 0.00 0.00 0.00 95 1017.4
20260831072501 70 120 0.0 0.0 0.00 0.00 0.00 95 1017.5
20260831072400 70 120 0.0 0.0 0.00 0.00 0.00 95 1017.4
20260831072259 70 120 0.0 0.0 0.00 0.00 0.00 95 1017.5
20260831072201 70 120 0.0 0.0 0.00 0.00 0.00 95 1017.5
20260831072100 70 120 0.0 0.0 0.00 0.00 0.00 95 1017.5
20260831071859 71 120 0.0 0.0 0.00 0.00 0.00 95 1017.5
20260831071758 71 120 0.0 0.0 0.00 0.00 0.00 95 1017.5
20260831071700 71 120 0.0 0.0 0.00 0.00 0.00 95 1017.5
20260831071559 71 120 0.0 0.0 0.00 0.00 0.00 95 1017.5
20260831071500 71 120 0.0 0.0 0.00 0.00 0.00 95 1017.5
20260831071158 71 120 0.0 0.0 0.00 0.00 0.00 95 1017.6
20260831071100 71 120 0.0 0.0 0.00 0.00 0.00 95 1017.6
20260831071000 71 120 0.0 0.0 0.00 0.00 0.00 95 1017.6
20260831070800 71 120 0.0 0.0 0.00 0.00 0.00 94 1017.6
20260831070500 71 120 0.0 0.0 0.00 0.00 0.00 94 1017.6
20260831070401 71 120 0.0 0.0 0.00 0.00 0.00 94 1017.6
20260831070300 71 120 0.0 0.0 0.00 0.00 0.00 94 1017.7
20260831070200 71 120 0.0 0.0 0.00 0.00 0.00 94 1017.7
20260831070059 71 120 0.0 0.0 0.00 0.00 0.00 94 1017.7
20260831070004 71 120 0.0 0.0 0.00 0.00 0.00 94 1017.6
20260831065859 71 120 0.0 0.0 0.00 0.00 0.00 94 1017.6
20260831065800 71 120 0.0 0.0 0.00 0.00 0.00 94 1017.6
20260831065559 71 120 0.0 0.0 0.00 0.00 0.00 94 1017.5
20260831065501 71 120 0.0 0.0 0.00 0.00 0.00 94 1017.6
20260831065401 71 120 0.0 0.0 0.00 0.00 0.00 94 1017.6
20260831065259 71 120 0.0 0.0 0.00 0.00 0.00 94 1017.6
20260831065059 71 120 0.0 0.0 0.00 0.00 0.00 94 1017.6
20260831064901 71 120 0.0 0.0 0.00 0.00 0.00 94 1017.7
20260831064800 71 120 0.0 0.0 0.00 0.00 0.00 94 1017.7
20260831064559 71 120 0.0 0.0 0.00 0.00 0.00 93 1017.7
20260831064504 71 120 0.0 0.0 0.00 0.00 0.00 93 1017.7
20260831064400 72 120 0.0 0.0 0.00 0.00 0.00 93 1017.7
20260831064300 72 120 0.0 0.0 0.00 0.00 0.00 93 1017.7
20260831064159 72 120 0.0 0.0 0.00 0.00 0.00 93 1017.7
20260831064059 72 120 0.0 0.0 0.00 0.00 0.00 94 1017.7
20260831064003 72 120 0.0 0.0 0.00 0.00 0.00 94 1017.7
20260831063759 72 120 0.0 0.0 0.00 0.00 0.00 93 1017.8
20260831063659 72 120 0.0 0.0 0.00 0.00 0.00 93 1017.8
20260831063559 72 120 0.0 0.0 0.00 0.00 0.00 93 1017.7
20260831063504 72 120 0.0 0.0 0.00 0.00 0.00 93 1017.8
20260831063359 72 120 0.0 0.0 0.00 0.00 0.00 93 1017.8
20260831063257 72 120 0.0 0.0 0.00 0.00 0.00 93 1017.8
20260831063101 72 120 0.0 0.0 0.00 0.00 0.00 93 1017.8
20260831062959 72 120 0.0 0.0 0.00 0.00 0.00 93 1017.8
20260831062759 72 120 0.0 0.0 0.00 0.00 0.00 93 1017.7
20260831062659 72 120 0.0 0.0 0.00 0.00 0.00 93 1017.7
20260831062600 72 120 0.0 0.0 0.00 0.00 0.00 93 1017.7
20260831062500 72 120 0.0 0.0 0.00 0.00 0.00 93 1017.7
20260831062400 72 120 0.0 0.0 0.00 0.00 0.00 93 1017.7
20260831062259 72 120 0.0 0.0 0.00 0.00 0.00 93 1017.7
20260831062200 72 120 0.0 0.0 0.00 0.00 0.00 93 1017.7
20260831062059 72 120 0.0 0.0 0.00 0.00 0.00 93 1017.8
20260831062004 72 120 0.0 0.0 0.00 0.00 0.00 93 1017.7
20260831061900 72 120 0.0 0.0 0.00 0.00 0.00 93 1017.8
20260831061759 72 120 0.0 0.0 0.00 0.00 0.00 93 1017.7
20260831061701 72 120 0.0 0.0 0.00 0.00 0.00 93 1017.7
20260831061558 72 120 0.0 1.0 0.00 0.00 0.00 93 1017.7
20260831061503 72 120 0.0 1.0 0.00 0.00 0.00 93 1017.7
20260831061400 72 120 0.0 1.0 0.00 0.00 0.00 93 1017.7
20260831061259 72 120 0.0 2.0 0.00 0.00 0.00 93 1017.7
20260831061200 72 120 0.0 2.0 0.00 0.00 0.00 92 1017.7
20260831061059 72 120 0.0 2.0 0.00 0.00 0.00 93 1017.7
20260831061000 72 120 0.0 2.0 0.00 0.00 0.00 92 1017.8
20260831060900 72 120 0.0 2.0 0.00 0.00 0.00 92 1017.8
20260831060800 72 120 0.0 2.0 0.00 0.00 0.00 92 1017.8
20260831060659 72 120 1.0 3.0 0.00 0.00 0.00 92 1017.8
20260831060501 72 119 0.0 3.0 0.00 0.00 0.00 92 1017.9
20260831060359 72 119 1.0 3.0 0.00 0.00 0.00 91 1017.9
20260831060259 72 119 1.0 3.0 0.00 0.00 0.00 91 1017.9
20260831060200 72 119 0.0 3.0 0.00 0.00 0.00 91 1017.9
20260831060059 72 119 1.0 3.0 0.00 0.00 0.00 90 1017.9
20260831060004 72 119 1.0 3.0 0.00 0.00 0.00 89 1017.9
20260831055759 72 120 1.0 3.0 0.00 0.00 0.00 88 1017.9
20260831055659 72 119 1.0 2.0 0.00 0.00 0.00 88 1018.0
20260831055559 72 119 0.0 2.0 0.00 0.00 0.00 88 1018.0
20260831055503 72 119 0.0 2.0 0.00 0.00 0.00 88 1018.0
20260831055359 73 119 0.0 2.0 0.00 0.00 0.00 88 1017.9
20260831055159 73 119 0.0 2.0 0.00 0.00 0.00 88 1017.9
20260831055058 73 119 1.0 2.0 0.00 0.00 0.00 87 1017.9
20260831055000 73 119 0.0 0.0 0.00 0.00 0.00 87 1017.9
20260831054858 73 119 0.0 0.0 0.00 0.00 0.00 87 1018.0
20260831054700 73 119 0.0 0.0 0.00 0.00 0.00 87 1018.0
20260831054559 73 119 0.0 0.0 0.00 0.00 0.00 87 1018.0
20260831054501 73 119 0.0 0.0 0.00 0.00 0.00 87 1017.9
20260831054400 73 119 0.0 0.0 0.00 0.00 0.00 87 1017.9
20260831054300 73 119 0.0 0.0 0.00 0.00 0.00 87 1017.9
20260831054159 73 119 0.0 0.0 0.00 0.00 0.00 87 1017.8
20260831054003 73 119 0.0 0.0 0.00 0.00 0.00 87 1017.8
20260831053859 73 119 0.0 0.0 0.00 0.00 0.00 87 1017.9
20260831053800 73 119 0.0 0.0 0.00 0.00 0.00 87 1017.8
20260831053659 73 119 0.0 0.0 0.00 0.00 0.00 86 1017.8
20260831053559 73 119 0.0 0.0 0.00 0.00 0.00 86 1017.9
20260831053501 73 119 0.0 0.0 0.00 0.00 0.00 86 1017.8
20260831053400 73 119 0.0 0.0 0.00 0.00 0.00 86 1017.9
20260831053300 73 119 0.0 0.0 0.00 0.00 0.00 86 1017.8
20260831053200 73 119 0.0 0.0 0.00 0.00 0.00 85 1017.9
20260831053100 73 119 0.0 0.0 0.00 0.00 0.00 86 1017.9
20260831052859 73 119 0.0 0.0 0.00 0.00 0.00 85 1017.8
20260831052800 73 119 0.0 0.0 0.00 0.00 0.00 86 1017.8
20260831052659 73 119 0.0 1.0 0.00 0.00 0.00 85 1017.8
20260831052559 73 119 0.0 1.0 0.00 0.00 0.00 85 1017.8
20260831052504 73 119 0.0 1.0 0.00 0.00 0.00 85 1017.8
20260831052159 73 119 0.0 1.0 0.00 0.00 0.00 85 1017.9
20260831052100 73 119 0.0 1.0 0.00 0.00 0.00 85 1017.8
20260831052000 73 119 0.0 1.0 0.00 0.00 0.00 85 1017.8
20260831051859 73 119 0.0 1.0 0.00 0.00 0.00 85 1017.8
20260831051658 73 119 0.0 1.0 0.00 0.00 0.00 85 1017.7
20260831051559 73 119 0.0 2.0 0.00 0.00 0.00 86 1017.7
20260831051400 73 119 0.0 2.0 0.00 0.00 0.00 85 1017.6
20260831051258 73 119 0.0 2.0 0.00 0.00 0.00 85 1017.7
20260831051059 73 119 1.0 2.0 0.00 0.00 0.00 85 1017.6
20260831050859 73 119 0.0 5.0 0.00 0.00 0.00 85 1017.7
20260831050759 73 119 1.0 5.0 0.00 0.00 0.00 85 1017.7
20260831050659 73 119 1.0 5.0 0.00 0.00 0.00 85 1017.7
20260831050600 73 119 1.0 5.0 0.00 0.00 0.00 85 1017.6
20260831050503 73 119 0.0 5.0 0.00 0.00 0.00 85 1017.6
20260831050400 73 119 1.0 5.0 0.00 0.00 0.00 85 1017.6
20260831050300 73 30 2.0 5.0 0.00 0.00 0.00 85 1017.6
20260831050201 73 30 1.0 5.0 0.00 0.00 0.00 85 1017.7
20260831050100 73 30 2.0 5.0 0.00 0.00 0.00 86 1017.7
20260831050004 73 17 3.0 3.0 0.00 0.00 0.00 86 1017.8
20260831045900 73 146 0.0 3.0 0.00 0.00 0.00 86 1017.8
20260831045800 73 146 0.0 3.0 0.00 0.00 0.00 86 1017.8
20260831045659 73 146 1.0 3.0 0.00 0.00 0.00 87 1017.7
20260831045600 72 91 0.0 3.0 0.00 0.00 0.00 87 1017.8
20260831045501 72 90 0.0 3.0 0.00 0.00 0.00 87 1017.8
20260831045400 72 90 1.0 3.0 0.00 0.00 0.00 87 1017.9
20260831045301 72 5 0.0 2.0 0.00 0.00 0.00 87 1017.9
20260831045059 72 5 0.0 2.0 0.00 0.00 0.00 89 1017.8
20260831045003 72 5 0.0 2.0 0.00 0.00 0.00 89 1017.8
20260831044900 72 5 0.0 2.0 0.00 0.00 0.00 89 1017.8
20260831044759 72 5 0.0 1.0 0.00 0.00 0.00 89 1017.7
20260831044659 72 5 0.0 1.0 0.00 0.00 0.00 89 1017.8
20260831044600 72 5 0.0 1.0 0.00 0.00 0.00 89 1017.8
20260831044503 72 5 0.0 1.0 0.00 0.00 0.00 89 1017.8
20260831044259 72 5 0.0 1.0 0.00 0.00 0.00 90 1017.9
20260831044159 72 5 0.0 1.0 0.00 0.00 0.00 90 1017.8
20260831044100 72 5 0.0 1.0 0.00 0.00 0.00 90 1017.8
20260831044000 72 5 0.0 0.0 0.00 0.00 0.00 91 1017.8
20260831043900 72 5 0.0 0.0 0.00 0.00 0.00 91 1017.8
20260831043759 72 5 0.0 0.0 0.00 0.00 0.00 91 1017.7
20260831043659 72 5 0.0 0.0 0.00 0.00 0.00 91 1017.8
20260831043559 72 5 0.0 0.0 0.00 0.00 0.00 92 1017.8
20260831043500 72 5 0.0 0.0 0.00 0.00 0.00 92 1017.8
20260831043359 72 5 0.0 0.0 0.00 0.00 0.00 92 1017.9
20260831043259 72 5 0.0 0.0 0.00 0.00 0.00 92 1017.9
20260831043201 72 5 0.0 0.0 0.00 0.00 0.00 92 1017.8
20260831043059 72 5 0.0 0.0 0.00 0.00 0.00 92 1017.8
20260831043003 72 5 0.0 0.0 0.00 0.00 0.00 92 1017.8
20260831042900 72 5 0.0 0.0 0.00 0.00 0.00 92 1017.8
20260831042759 72 5 0.0 0.0 0.00 0.00 0.00 92 1017.8
20260831042659 72 5 0.0 0.0 0.00 0.00 0.00 92 1017.7
20260831042600 72 5 0.0 0.0 0.00 0.00 0.00 92 1017.8
20260831042501 72 5 0.0 0.0 0.00 0.00 0.00 93 1017.8
20260831042400 72 5 0.0 0.0 0.00 0.00 0.00 93 1017.9
20260831042259 72 5 0.0 0.0 0.00 0.00 0.00 93 1017.9
20260831042200 72 5 0.0 0.0 0.00 0.00 0.00 93 1017.9
20260831042103 72 5 0.0 0.0 0.00 0.00 0.00 93 1018.0
20260831042004 72 5 0.0 0.0 0.00 0.00 0.00 93 1018.0
20260831041900 72 5 0.0 0.0 0.00 0.00 0.00 94 1017.9
20260831041800 72 5 0.0 0.0 0.00 0.00 0.00 93 1017.9
20260831041659 72 5 0.0 0.0 0.00 0.00 0.00 93 1017.9
20260831041559 72 5 0.0 0.0 0.00 0.00 0.00 93 1018.0
20260831041504 72 5 0.0 0.0 0.00 0.00 0.00 93 1017.9
20260831041359 72 5 0.0 0.0 0.00 0.00 0.00 93 1017.8
20260831041300 72 5 0.0 0.0 0.00 0.00 0.00 93 1017.8
20260831041158 72 5 0.0 0.0 0.00 0.00 0.00 93 1017.8
20260831041000 72 5 0.0 0.0 0.00 0.00 0.00 94 1017.7
20260831040900 72 5 0.0 0.0 0.00 0.00 0.00 94 1017.7
20260831040759 72 5 0.0 0.0 0.00 0.00 0.00 93 1017.7
20260831040659 72 5 0.0 0.0 0.00 0.00 0.00 93 1017.8
20260831040559 73 5 0.0 0.0 0.00 0.00 0.00 93 1017.7
20260831040500 73 5 0.0 0.0 0.00 0.00 0.00 93 1017.7
20260831040359 73 5 0.0 0.0 0.00 0.00 0.00 93 1017.7
20260831040259 73 5 0.0 0.0 0.00 0.00 0.00 93 1017.7
20260831040202 73 5 0.0 0.0 0.00 0.00 0.00 93 1017.7
20260831040105 73 5 0.0 0.0 0.00 0.00 0.00 93 1017.7
20260831040008 73 5 0.0 0.0 0.00 0.00 0.00 94 1017.7
20260831035901 73 5 0.0 1.0 0.00 0.00 0.00 94 1017.7
20260831035801 73 5 0.0 2.0 0.00 0.00 0.00 94 1017.7
20260831035703 73 5 0.0 2.0 0.00 0.00 0.00 93 1017.7
20260831035505 73 5 0.0 2.0 0.00 0.00 0.00 93 1017.7
20260831035401 73 5 0.0 2.0 0.00 0.00 0.00 93 1017.7
20260831035306 73 5 0.0 2.0 0.00 0.00 0.00 94 1017.7
20260831035202 73 5 0.0 2.0 0.00 0.00 0.00 94 1017.8
20260831035003 72 5 0.0 2.0 0.00 0.00 0.00 94 1017.8
20260831034901 72 5 2.0 2.0 0.00 0.00 0.00 94 1017.7
20260831034801 72 5 0.0 2.0 0.00 0.00 0.00 93 1017.8
20260831034701 72 5 0.0 2.0 0.00 0.00 0.00 93 1017.8
20260831034601 72 5 0.0 2.0 0.00 0.00 0.00 94 1017.8
20260831034505 72 5 1.0 2.0 0.00 0.00 0.00 94 1017.8
20260831034402 73 5 0.0 1.0 0.00 0.00 0.00 94 1017.8
20260831034301 73 5 0.0 1.0 0.00 0.00 0.00 94 1017.9
20260831034201 73 5 1.0 1.0 0.00 0.00 0.00 94 1017.9
20260831034102 73 5 1.0 1.0 0.00 0.00 0.00 94 1018.0
20260831034004 73 5 0.0 1.0 0.00 0.00 0.00 94 1018.0
20260831033901 73 5 1.0 1.0 0.00 0.00 0.00 94 1018.0
20260831033801 73 5 0.0 1.0 0.00 0.00 0.00 94 1018.0
20260831033702 72 5 0.0 1.0 0.00 0.00 0.00 94 1018.0
20260831033602 73 5 0.0 1.0 0.00 0.00 0.00 94 1018.1
20260831033504 73 5 0.0 1.0 0.00 0.00 0.00 94 1018.1
20260831033401 73 5 0.0 1.0 0.00 0.00 0.00 94 1018.1
20260831033302 73 5 0.0 1.0 0.00 0.00 0.00 94 1018.1
20260831033202 73 5 0.0 0.0 0.00 0.00 0.00 94 1018.1
20260831033103 73 5 0.0 0.0 0.00 0.00 0.00 94 1018.2
20260831033004 73 5 0.0 0.0 0.00 0.00 0.00 94 1018.1
20260831032902 73 5 0.0 0.0 0.00 0.00 0.00 94 1018.2
20260831032801 73 5 0.0 0.0 0.00 0.00 0.00 94 1018.2
20260831032702 73 5 0.0 1.0 0.00 0.00 0.00 94 1018.2
20260831032602 73 5 0.0 1.0 0.00 0.00 0.00 94 1018.2
20260831032503 73 5 0.0 1.0 0.00 0.00 0.00 94 1018.2
20260831032401 73 5 0.0 1.0 0.00 0.00 0.00 94 1018.3
20260831032302 73 5 0.0 1.0 0.00 0.00 0.00 94 1018.3
20260831032201 73 5 0.0 1.0 0.00 0.00 0.00 94 1018.3
20260831032101 73 5 0.0 1.0 0.00 0.00 0.00 94 1018.3
20260831032004 73 5 0.0 1.0 0.00 0.00 0.00 94 1018.3
20260831031901 73 5 0.0 1.0 0.00 0.00 0.00 94 1018.3
20260831031802 73 5 0.0 1.0 0.00 0.00 0.00 94 1018.3
20260831031701 73 5 1.0 1.0 0.00 0.00 0.00 94 1018.4
20260831031504 73 5 0.0 0.0 0.00 0.00 0.00 94 1018.5
20260831031401 73 5 0.0 0.0 0.00 0.00 0.00 94 1018.4
20260831031301 73 5 0.0 0.0 0.00 0.00 0.00 94 1018.5
20260831031201 73 5 0.0 0.0 0.00 0.00 0.00 94 1018.4
20260831031005 73 5 0.0 0.0 0.00 0.00 0.00 94 1018.4
20260831030902 73 5 0.0 0.0 0.00 0.00 0.00 94 1018.4
20260831030802 73 5 0.0 0.0 0.00 0.00 0.00 94 1018.5
20260831030701 73 5 0.0 0.0 0.00 0.00 0.00 94 1018.5
20260831030401 73 5 0.0 1.0 0.00 0.00 0.00 94 1018.5
20260831030301 73 5 0.0 1.0 0.00 0.00 0.00 94 1018.5
20260831030201 73 5 0.0 1.0 0.00 0.00 0.00 94 1018.4
20260831030006 72 5 0.0 1.0 0.00 0.00 0.00 94 1018.4
20260831025901 72 5 0.0 1.0 0.00 0.00 0.00 94 1018.4
20260831025701 72 5 0.0 1.0 0.00 0.00 0.00 94 1018.4
20260831025505 72 5 0.0 2.0 0.00 0.00 0.00 94 1018.4
20260831025403 72 5 1.0 2.0 0.00 0.00 0.00 94 1018.4
20260831025202 72 5 1.0 2.0 0.00 0.00 0.00 94 1018.4
20260831025102 72 5 1.0 2.0 0.00 0.00 0.00 94 1018.4
20260831025005 72 5 0.0 2.0 0.00 0.00 0.00 94 1018.4
20260831024901 72 5 0.0 2.0 0.00 0.00 0.00 94 1018.4
20260831024802 72 5 0.0 2.0 0.00 0.00 0.00 95 1018.4
20260831024701 72 5 0.0 2.0 0.00 0.00 0.00 95 1018.4
20260831024504 72 5 0.0 1.0 0.00 0.00 0.00 95 1018.4
20260831024401 72 5 0.0 1.0 0.00 0.00 0.00 95 1018.4
20260831024301 72 5 0.0 0.0 0.00 0.00 0.00 95 1018.4
20260831024201 72 5 0.0 0.0 0.00 0.00 0.00 95 1018.4
20260831024101 72 5 0.0 0.0 0.00 0.00 0.00 95 1018.4
20260831024004 72 5 0.0 0.0 0.00 0.00 0.00 95 1018.4
20260831023901 72 5 0.0 0.0 0.00 0.00 0.00 95 1018.4
20260831023801 72 5 0.0 0.0 0.00 0.00 0.00 95 1018.4
20260831023602 72 5 0.0 0.0 0.00 0.00 0.00 95 1018.4
20260831023504 72 5 0.0 0.0 0.00 0.00 0.00 95 1018.4
20260831023401 72 5 0.0 0.0 0.00 0.00 0.00 95 1018.4
20260831023301 72 5 0.0 0.0 0.00 0.00 0.00 95 1018.4
20260831023202 72 5 0.0 0.0 0.00 0.00 0.00 95 1018.4
20260831023103 72 5 0.0 0.0 0.00 0.00 0.00 95 1018.4
20260831023005 72 5 0.0 0.0 0.00 0.00 0.00 95 1018.4
20260831022901 72 5 0.0 0.0 0.00 0.00 0.00 95 1018.4
20260831022801 72 5 0.0 0.0 0.00 0.00 0.00 95 1018.4
20260831022703 72 5 0.0 0.0 0.00 0.00 0.00 95 1018.4
20260831022504 72 5 0.0 0.0 0.00 0.00 0.00 94 1018.4
20260831022301 72 5 0.0 0.0 0.00 0.00 0.00 94 1018.5
20260831022201 72 5 0.0 0.0 0.00 0.00 0.00 94 1018.5
20260831022101 72 5 0.0 0.0 0.00 0.00 0.00 94 1018.5
20260831022004 72 5 0.0 0.0 0.00 0.00 0.00 94 1018.4
20260831021902 72 5 0.0 0.0 0.00 0.00 0.00 94 1018.5
20260831021802 72 5 0.0 0.0 0.00 0.00 0.00 94 1018.5
20260831021701 72 5 0.0 0.0 0.00 0.00 0.00 94 1018.5
20260831021603 72 5 0.0 0.0 0.00 0.00 0.00 94 1018.5
20260831021505 72 5 0.0 0.0 0.00 0.00 0.00 94 1018.5
20260831021401 72 5 0.0 0.0 0.00 0.00 0.00 94 1018.4
20260831021301 72 5 0.0 0.0 0.00 0.00 0.00 94 1018.4
20260831021202 72 5 0.0 0.0 0.00 0.00 0.00 94 1018.4
20260831021101 72 5 0.0 0.0 0.00 0.00 0.00 94 1018.4
20260831021005 72 5 0.0 0.0 0.00 0.00 0.00 94 1018.3
20260831020900 72 5 0.0 0.0 0.00 0.00 0.00 94 1018.3
20260831020803 72 5 0.0 0.0 0.00 0.00 0.00 94 1018.3
20260831020702 72 5 0.0 0.0 0.00 0.00 0.00 94 1018.3
20260831020602 72 5 0.0 0.0 0.00 0.00 0.00 94 1018.3
20260831020402 72 5 0.0 0.0 0.00 0.00 0.00 94 1018.3
20260831020301 72 5 0.0 0.0 0.00 0.00 0.00 94 1018.3
20260831020204 72 5 0.0 0.0 0.00 0.00 0.00 94 1018.3
20260831020004 72 5 0.0 2.0 0.00 0.00 0.00 94 1018.3
20260831015900 72 5 0.0 2.0 0.00 0.00 0.00 94 1018.3
20260831015800 72 5 0.0 2.0 0.00 0.00 0.00 94 1018.3
20260831015600 72 5 0.0 2.0 0.00 0.00 0.00 94 1018.2
20260831015505 72 5 0.0 2.0 0.00 0.00 0.00 94 1018.2
20260831015300 72 5 0.0 2.0 0.00 0.00 0.00 94 1018.1
20260831015201 72 5 0.0 2.0 0.00 0.00 0.00 94 1018.2
20260831015101 72 5 0.0 2.0 0.00 0.00 0.00 94 1018.2
20260831015003 72 5 1.0 2.0 0.00 0.00 0.00 94 1018.2
20260831014800 72 5 0.0 2.0 0.00 0.00 0.00 94 1018.3
20260831014700 72 5 0.0 2.0 0.00 0.00 0.00 94 1018.2
20260831014600 72 5 1.0 1.0 0.00 0.00 0.00 94 1018.2
20260831014504 72 5 0.0 0.0 0.00 0.00 0.00 94 1018.3
20260831014400 72 5 0.0 0.0 0.00 0.00 0.00 94 1018.3
20260831014300 72 5 0.0 0.0 0.00 0.00 0.00 94 1018.3
20260831014200 72 5 0.0 0.0 0.00 0.00 0.00 94 1018.3
20260831014100 72 5 0.0 0.0 0.00 0.00 0.00 94 1018.3
20260831014005 72 5 0.0 0.0 0.00 0.00 0.00 94 1018.3
20260831013900 72 5 0.0 0.0 0.00 0.00 0.00 94 1018.4
20260831013800 72 5 0.0 0.0 0.00 0.00 0.00 94 1018.3
20260831013701 72 5 0.0 0.0 0.00 0.00 0.00 94 1018.4
20260831013601 72 5 0.0 0.0 0.00 0.00 0.00 93 1018.3
20260831013503 72 5 0.0 0.0 0.00 0.00 0.00 93 1018.3
20260831013401 72 5 0.0 0.0 0.00 0.00 0.00 93 1018.3
20260831013300 72 5 0.0 0.0 0.00 0.00 0.00 93 1018.2
20260831013201 72 5 0.0 0.0 0.00 0.00 0.00 93 1018.2
20260831013101 73 5 0.0 0.0 0.00 0.00 0.00 93 1018.2
20260831013004 73 5 0.0 0.0 0.00 0.00 0.00 93 1018.2
20260831012859 73 5 0.0 0.0 0.00 0.00 0.00 93 1018.2
20260831012801 73 5 0.0 0.0 0.00 0.00 0.00 93 1018.2
20260831012701 73 5 0.0 0.0 0.00 0.00 0.00 93 1018.3
20260831012600 73 5 0.0 0.0 0.00 0.00 0.00 93 1018.2
20260831012505 73 5 0.0 0.0 0.00 0.00 0.00 93 1018.2
20260831012400 73 5 0.0 0.0 0.00 0.00 0.00 93 1018.2
20260831012305 73 5 0.0 0.0 0.00 0.00 0.00 93 1018.2
20260831012200 73 5 0.0 0.0 0.00 0.00 0.00 93 1018.1
20260831012101 73 5 0.0 0.0 0.00 0.00 0.00 93 1018.1
20260831012003 73 5 0.0 0.0 0.00 0.00 0.00 93 1018.1
20260831011900 73 5 0.0 0.0 0.00 0.00 0.00 93 1018.1
20260831011800 73 5 0.0 0.0 0.00 0.00 0.00 93 1018.0
20260831011701 73 5 0.0 0.0 0.00 0.00 0.00 93 1018.0
20260831011600 73 5 0.0 0.0 0.00 0.00 0.00 92 1018.0
20260831011505 73 5 0.0 0.0 0.00 0.00 0.00 92 1018.0
20260831011401 73 5 0.0 0.0 0.00 0.00 0.00 92 1018.0
20260831011300 73 5 0.0 0.0 0.00 0.00 0.00 92 1018.0
20260831011201 73 5 0.0 0.0 0.00 0.00 0.00 92 1018.0
20260831011100 73 5 0.0 0.0 0.00 0.00 0.00 92 1017.9
20260831011003 73 5 0.0 0.0 0.00 0.00 0.00 92 1018.0
20260831010900 73 5 0.0 0.0 0.00 0.00 0.00 92 1018.0
20260831010800 73 5 0.0 0.0 0.00 0.00 0.00 92 1017.9
20260831010700 73 5 0.0 0.0 0.00 0.00 0.00 92 1017.9
20260831010600 73 5 0.0 0.0 0.00 0.00 0.00 92 1017.9
20260831010504 73 5 0.0 0.0 0.00 0.00 0.00 92 1017.8
20260831010400 73 5 0.0 0.0 0.00 0.00 0.00 92 1017.9
20260831010301 73 5 0.0 0.0 0.00 0.00 0.00 92 1017.9
20260831010200 73 5 0.0 0.0 0.00 0.00 0.00 92 1017.9
20260831010059 73 5 0.0 0.0 0.00 0.00 0.00 92 1017.9
20260831005802 73 5 0.0 0.0 0.00 0.00 0.00 91 1017.8
20260831005701 73 5 0.0 0.0 0.00 0.00 0.00 91 1017.8
20260831005503 73 5 0.0 0.0 0.00 0.00 0.00 91 1017.7
20260831005402 73 5 0.0 0.0 0.00 0.00 0.00 91 1017.7
20260831005202 73 5 0.0 0.0 0.00 0.00 0.00 91 1017.6
20260831005101 73 5 0.0 0.0 0.00 0.00 0.00 91 1017.6
20260831005004 73 5 0.0 0.0 0.00 0.00 0.00 91 1017.6
20260831004901 73 5 0.0 0.0 0.00 0.00 0.00 91 1017.6
20260831004801 73 5 0.0 0.0 0.00 0.00 0.00 91 1017.6
20260831004701 73 5 0.0 0.0 0.00 0.00 0.00 91 1017.5
20260831004504 73 5 0.0 0.0 0.00 0.00 0.00 91 1017.5
20260831004403 73 5 0.0 0.0 0.00 0.00 0.00 91 1017.5
20260831004101 73 5 0.0 0.0 0.00 0.00 0.00 90 1017.4
20260831004004 73 5 0.0 0.0 0.00 0.00 0.00 90 1017.4
20260831003903 74 5 0.0 0.0 0.00 0.00 0.00 90 1017.4
20260831003801 74 5 0.0 0.0 0.00 0.00 0.00 90 1017.4
20260831003700 74 5 0.0 0.0 0.00 0.00 0.00 90 1017.4
20260831003600 74 5 0.0 0.0 0.00 0.00 0.00 90 1017.3
20260831003401 74 5 0.0 0.0 0.00 0.00 0.00 90 1017.3
20260831003302 74 5 0.0 0.0 0.00 0.00 0.00 90 1017.2
20260831003202 74 5 0.0 0.0 0.00 0.00 0.00 90 1017.2
20260831003101 74 5 0.0 0.0 0.00 0.00 0.00 90 1017.2
20260831003004 74 5 0.0 0.0 0.00 0.00 0.00 90 1017.1
20260831002900 74 5 0.0 0.0 0.00 0.00 0.00 90 1017.1
20260831002801 74 5 0.0 0.0 0.00 0.00 0.00 89 1017.1
20260831002602 74 5 0.0 0.0 0.00 0.00 0.00 89 1017.1
20260831002503 74 5 0.0 0.0 0.00 0.00 0.00 89 1017.0
20260831002401 74 5 0.0 0.0 0.00 0.00 0.00 89 1017.0
20260831002201 74 5 0.0 0.0 0.00 0.00 0.00 89 1017.0
20260831001902 74 5 0.0 0.0 0.00 0.00 0.00 88 1016.9
20260831001701 74 5 0.0 0.0 0.00 0.00 0.00 88 1016.9
20260831001602 74 5 0.0 0.0 0.00 0.00 0.00 87 1016.8
20260831001504 74 5 0.0 0.0 0.00 0.00 0.00 87 1016.8
20260831001301 74 5 0.0 0.0 0.00 0.00 0.00 87 1016.8
20260831001201 74 5 0.0 0.0 0.00 0.00 0.00 88 1016.7
20260831001102 74 5 0.0 0.0 0.00 0.00 0.00 88 1016.6
20260831001004 74 5 0.0 0.0 0.00 0.00 0.00 88 1016.6
20260831000901 74 5 0.0 0.0 0.00 0.00 0.00 88 1016.5
20260831000701 75 5 0.0 0.0 0.00 0.00 0.00 88 1016.6
20260831000602 75 5 0.0 0.0 0.00 0.00 0.00 88 1016.6
20260831000504 75 5 0.0 0.0 0.00 0.00 0.00 88 1016.6
20260831000402 75 5 0.0 0.0 0.00 0.00 0.00 88 1016.6
20260831000203 75 5 0.0 0.0 0.00 0.00 0.00 87 1016.6
20260831000004 75 5 0.0 0.0 0.00 0.00 0.00 86 1016.5
20260830235901 75 5 0.0 0.0 0.00 0.00 0.00 86 1016.6
20260830235701 75 5 0.0 0.0 0.00 0.00 0.00 86 1016.6
20260830235402 75 5 0.0 0.0 0.00 0.00 0.00 86 1016.4
20260830235300 75 5 0.0 0.0 0.00 0.00 0.00 85 1016.5
20260830235202 75 5 0.0 0.0 0.00 0.00 0.00 85 1016.5
20260830235102 75 5 0.0 0.0 0.00 0.00 0.00 85 1016.5
20260830235004 76 5 0.0 0.0 0.00 0.00 0.00 85 1016.5
20260830234902 76 5 0.0 0.0 0.00 0.00 0.00 85 1016.5
20260830234801 76 5 0.0 0.0 0.00 0.00 0.00 85 1016.5
20260830234702 76 5 0.0 0.0 0.00 0.00 0.00 85 1016.5
20260830234504 76 5 0.0 0.0 0.00 0.00 0.00 85 1016.6
20260830234402 76 5 0.0 0.0 0.00 0.00 0.00 85 1016.6
20260830234201 76 5 0.0 0.0 0.00 0.00 0.00 85 1016.6
20260830234101 76 5 0.0 0.0 0.00 0.00 0.00 84 1016.6
20260830234005 76 5 0.0 0.0 0.00 0.00 0.00 84 1016.7
20260830233901 76 5 0.0 0.0 0.00 0.00 0.00 85 1016.6
20260830233802 76 5 0.0 0.0 0.00 0.00 0.00 85 1016.6
20260830233702 76 5 0.0 0.0 0.00 0.00 0.00 85 1016.7
20260830233601 76 5 0.0 0.0 0.00 0.00 0.00 84 1016.7
20260830233504 76 5 0.0 0.0 0.00 0.00 0.00 84 1016.7
20260830233402 76 5 0.0 0.0 0.00 0.00 0.00 84 1016.7
20260830233301 76 5 0.0 0.0 0.00 0.00 0.00 84 1016.7
20260830233202 76 5 0.0 0.0 0.00 0.00 0.00 83 1016.7
20260830233102 76 5 0.0 0.0 0.00 0.00 0.00 83 1016.7
20260830233005 76 5 0.0 0.0 0.00 0.00 0.00 83 1016.8
20260830232901 76 5 0.0 0.0 0.00 0.00 0.00 83 1016.7
20260830232801 76 5 0.0 0.0 0.00 0.00 0.00 83 1016.8
20260830232702 76 5 0.0 0.0 0.00 0.00 0.00 83 1016.8
20260830232504 76 5 0.0 0.0 0.00 0.00 0.00 83 1016.8
20260830232401 76 5 0.0 0.0 0.00 0.00 0.00 82 1016.8
20260830232101 77 5 0.0 0.0 0.00 0.00 0.00 82 1016.8
20260830232004 77 5 0.0 0.0 0.00 0.00 0.00 82 1016.8
20260830231901 77 5 0.0 0.0 0.00 0.00 0.00 82 1016.9
20260830231804 77 5 0.0 0.0 0.00 0.00 0.00 82 1016.9
20260830231702 77 5 0.0 0.0 0.00 0.00 0.00 82 1016.8
20260830231602 77 5 0.0 0.0 0.00 0.00 0.00 82 1016.8
20260830231505 77 5 0.0 0.0 0.00 0.00 0.00 82 1016.8
20260830231401 77 5 0.0 0.0 0.00 0.00 0.00 82 1016.8
20260830231301 77 5 0.0 0.0 0.00 0.00 0.00 81 1016.7
20260830231201 77 5 0.0 0.0 0.00 0.00 0.00 82 1016.8
20260830231101 77 5 0.0 0.0 0.00 0.00 0.00 81 1016.8
20260830231005 77 5 0.0 0.0 0.00 0.00 0.00 82 1016.8
20260830230801 77 5 0.0 0.0 0.00 0.00 0.00 81 1016.8
20260830230602 77 5 0.0 0.0 0.00 0.00 0.00 82 1016.8
20260830230301 77 5 0.0 0.0 0.00 0.00 0.00 82 1016.8
20260830230201 77 5 0.0 0.0 0.00 0.00 0.00 82 1016.8
20260830230004 77 5 0.0 0.0 0.00 0.00 0.00 82 1016.8
20260830225902 77 5 0.0 0.0 0.00 0.00 0.00 82 1016.8
20260830225801 77 5 0.0 0.0 0.00 0.00 0.00 81 1016.8
20260830225701 77 5 0.0 0.0 0.00 0.00 0.00 81 1016.8
20260830225601 77 5 0.0 0.0 0.00 0.00 0.00 81 1016.7
20260830225504 77 5 0.0 0.0 0.00 0.00 0.00 81 1016.7
20260830225401 78 5 0.0 0.0 0.00 0.00 0.00 81 1016.7
20260830225305 78 5 0.0 0.0 0.00 0.00 0.00 81 1016.7
20260830225201 78 5 0.0 0.0 0.00 0.00 0.00 81 1016.7
20260830225101 78 5 0.0 0.0 0.00 0.00 0.00 81 1016.7
20260830225005 78 5 0.0 0.0 0.00 0.00 0.00 81 1016.8
20260830224901 78 5 0.0 0.0 0.00 0.00 0.00 81 1016.8
20260830224702 78 5 0.0 0.0 0.00 0.00 0.00 81 1016.7
20260830224602 78 5 0.0 0.0 0.00 0.00 0.00 81 1016.7
20260830224504 78 5 0.0 0.0 0.00 0.00 0.00 80 1016.8
20260830224403 78 5 0.0 0.0 0.00 0.00 0.00 79 1016.8
20260830224302 78 5 0.0 0.0 0.00 0.00 0.00 79 1016.8
20260830224101 78 5 0.0 0.0 0.00 0.00 0.00 79 1016.8
20260830224004 78 5 0.0 0.0 0.00 0.00 0.00 79 1016.8
20260830223901 78 5 0.0 0.0 0.00 0.00 0.00 80 1016.8
20260830223801 79 5 0.0 0.0 0.00 0.00 0.00 80 1016.8
20260830223702 79 5 0.0 0.0 0.00 0.00 0.00 79 1016.9
20260830223504 79 5 0.0 0.0 0.00 0.00 0.00 80 1016.9
20260830223401 79 5 0.0 0.0 0.00 0.00 0.00 79 1016.9
20260830223301 79 5 0.0 0.0 0.00 0.00 0.00 79 1016.9
20260830223201 79 5 0.0 0.0 0.00 0.00 0.00 80 1016.9
20260830223101 79 5 0.0 0.0 0.00 0.00 0.00 80 1017.0
20260830223005 79 5 0.0 0.0 0.00 0.00 0.00 78 1016.9
20260830222803 79 5 0.0 0.0 0.00 0.00 0.00 77 1017.0
20260830222701 79 5 0.0 0.0 0.00 0.00 0.00 77 1017.0
20260830222601 80 5 0.0 0.0 0.00 0.00 0.00 77 1017.0
20260830222505 80 5 0.0 0.0 0.00 0.00 0.00 77 1017.0
20260830222402 80 5 0.0 0.0 0.00 0.00 0.00 77 1017.0
20260830222301 80 5 0.0 0.0 0.00 0.00 0.00 77 1017.0
20260830222100 80 5 0.0 0.0 0.00 0.00 0.00 78 1016.9
20260830222004 80 5 0.0 0.0 0.00 0.00 0.00 78 1016.9
20260830221902 80 5 0.0 0.0 0.00 0.00 0.00 80 1016.9
20260830221803 80 5 0.0 0.0 0.00 0.00 0.00 81 1016.9
20260830221703 80 5 0.0 0.0 0.00 0.00 0.00 80 1016.9
20260830221602 80 5 0.0 0.0 0.00 0.00 0.00 80 1016.8
20260830221503 80 5 0.0 0.0 0.00 0.00 0.00 77 1016.8
20260830221401 80 5 0.0 0.0 0.00 0.00 0.00 78 1016.9
20260830221202 80 5 0.0 0.0 0.00 0.00 0.00 77 1016.8
20260830221102 80 5 0.0 0.0 0.00 0.00 0.00 76 1016.8
20260830221004 81 5 0.0 0.0 0.00 0.00 0.00 76 1016.8
20260830220901 81 5 0.0 0.0 0.00 0.00 0.00 76 1016.8
20260830220802 81 5 0.0 0.0 0.00 0.00 0.00 76 1016.9
20260830220701 81 5 0.0 0.0 0.00 0.00 0.00 76 1016.9
20260830220601 81 5 0.0 2.0 0.00 0.00 0.00 75 1016.8
20260830220504 81 5 0.0 2.0 0.00 0.00 0.00 75 1016.8
20260830220400 81 5 0.0 2.0 0.00 0.00 0.00 76 1016.8
20260830220301 81 5 0.0 2.0 0.00 0.00 0.00 75 1016.7
20260830220201 81 5 0.0 3.0 0.00 0.00 0.00 74 1016.8
20260830220005 81 5 0.0 4.0 0.00 0.00 0.00 75 1016.7
20260830215903 81 5 0.0 4.0 0.00 0.00 0.00 73 1016.6
20260830215505 81 5 2.0 4.0 0.00 0.00 0.00 73 1016.6
20260830215402 81 5 1.0 4.0 0.00 0.00 0.00 73 1016.6
20260830215305 81 5 1.0 4.0 0.00 0.00 0.00 74 1016.6
20260830215202 81 5 3.0 4.0 0.00 0.00 0.00 73 1016.6
20260830215102 81 355 2.0 3.0 0.00 0.00 0.00 75 1016.6
20260830215004 81 90 0.0 2.0 0.00 0.00 0.00 74 1016.6
20260830214903 81 90 0.0 2.0 0.00 0.00 0.00 74 1016.6
20260830214802 81 90 0.0 2.0 0.00 0.00 0.00 76 1016.5
20260830214702 81 90 0.0 2.0 0.00 0.00 0.00 76 1016.5
20260830214602 81 90 1.0 2.0 0.00 0.00 0.00 76 1016.5
20260830214504 81 90 0.0 2.0 0.00 0.00 0.00 77 1016.5
20260830214401 81 90 1.0 2.0 0.00 0.00 0.00 80 1016.5
20260830214302 81 90 0.0 2.0 0.00 0.00 0.00 80 1016.5
20260830214201 81 90 0.0 2.0 0.00 0.00 0.00 81 1016.5
20260830214101 81 90 0.0 2.0 0.00 0.00 0.00 81 1016.6
20260830214004 81 90 0.0 2.0 0.00 0.00 0.00 81 1016.6
20260830213802 81 90 0.0 2.0 0.00 0.00 0.00 80 1016.5
20260830213602 81 90 0.0 0.0 0.00 0.00 0.00 81 1016.5
20260830213401 81 90 0.0 0.0 0.00 0.00 0.00 82 1016.4
20260830213302 81 90 0.0 0.0 0.00 0.00 0.00 84 1016.5
20260830213200 81 90 0.0 0.0 0.00 0.00 0.00 83 1016.5
20260830213101 81 90 0.0 0.0 0.00 0.00 0.00 81 1016.4
20260830213005 81 90 0.0 0.0 0.00 0.00 0.00 82 1016.4
20260830212901 81 90 0.0 0.0 0.00 0.00 0.00 82 1016.4
20260830212803 81 90 0.0 0.0 0.00 0.00 0.00 80 1016.4
20260830212601 81 90 0.0 0.0 0.00 0.00 0.00 79 1016.5
20260830212305 81 90 0.0 0.0 0.00 0.00 0.00 79 1016.4
20260830212202 81 90 0.0 0.0 0.00 0.00 0.00 79 1016.5
20260830212105 81 90 0.0 0.0 0.00 0.00 0.00 79 1016.4
20260830212005 81 90 0.0 0.0 0.00 0.00 0.00 79 1016.4
20260830211901 82 90 0.0 0.0 0.00 0.00 0.00 78 1016.5
20260830211803 82 90 0.0 0.0 0.00 0.00 0.00 78 1016.5
20260830211702 82 90 0.0 0.0 0.00 0.00 0.00 78 1016.5
20260830211603 82 90 0.0 0.0 0.00 0.00 0.00 78 1016.5
20260830211504 82 90 0.0 0.0 0.00 0.00 0.00 79 1016.5
20260830211403 82 90 0.0 0.0 0.00 0.00 0.00 79 1016.5
20260830211301 82 90 0.0 0.0 0.00 0.00 0.00 79 1016.5
20260830211202 82 90 0.0 0.0 0.00 0.00 0.00 78 1016.5
20260830211100 82 90 0.0 0.0 0.00 0.00 0.00 77 1016.5
20260830211004 82 90 0.0 0.0 0.00 0.00 0.00 77 1016.4
20260830210901 82 90 0.0 0.0 0.00 0.00 0.00 76 1016.4